Time,TemperatureF,DewpointF,PressureIn,WindDirection,WindDirectionDegrees,WindSpeedMPH,WindSpeedGustMPH,Humidity,HourlyPrecipIn,Conditions,Clouds,dailyrainin,SolarRadiationWatts/m^2,SoftwareType,DateUTC
2013-12-04 00:01:00,33.5,32.2,29.82,North,5,1.0,3.0,95,0.00,,,0.00,0,Wunderground v.1.15,2013-12-04 06:01:00,
2013-12-04 00:02:00,33.5,32.2,29.82,NNE,13,1.0,3.0,95,0.00,,,0.00,0,Wunderground v.1.15,2013-12-04 06:02:00,
2013-12-04 00:03:00,33.4,32.1,29.82,NW,311,1.0,4.0,95,0.00,,,0.00,0,Wunderground v.1.15,2013-12-04 06:03:00,
2013-12-04 00:04:00,33.4,32.1,29.82,NW,323,1.0,4.0,95,0.00,,,0.00,0,Wunderground v.1.15,2013-12-04 06:04:00,
2013-12-04 00:06:00,33.4,32.1,29.82,NE,39,2.0,5.0,95,0.00,,,0.00,0,Wunderground v.1.15,2013-12-04 06:06:00,
2013-12-04 00:08:00,33.4,32.1,29.83,NNE,25,2.0,5.0,95,0.00,,,0.00,0,Wunderground v.1.15,2013-12-04 06:08:00,
2013-12-04 00:09:00,33.4,32.1,29.83,NNE,24,2.0,5.0,95,0.00,,,0.00,0,Wunderground v.1.15,2013-12-04 06:09:00,
2013-12-04 00:12:00,33.4,32.1,29.84,NNE,21,3.0,3.0,95,0.00,,,0.00,0,Wunderground v.1.15,2013-12-04 06:12:00,
2013-12-04 00:13:00,33.5,32.2,29.84,NNE,21,3.0,3.0,95,0.00,,,0.00,0,Wunderground v.1.15,2013-12-04 06:13:00,
2013-12-04 00:14:00,33.5,32.2,29.84,NNE,21,3.0,3.0,95,0.00,,,0.00,0,Wunderground v.1.15,2013-12-04 06:14:00,
2013-12-04 00:18:00,33.5,32.2,29.84,NNE,21,1.0,3.0,95,0.00,,,0.00,0,Wunderground v.1.15,2013-12-04 06:18:00,
2013-12-04 00:19:00,33.5,32.2,29.84,NNE,21,1.0,3.0,95,0.00,,,0.00,0,Wunderground v.1.15,2013-12-04 06:19:00,
2013-12-04 00:20:00,33.5,32.2,29.84,NNE,21,1.0,2.0,95,0.00,,,0.00,0,Wunderground v.1.15,2013-12-04 06:20:00,
2013-12-04 00:21:00,33.5,32.2,29.84,North,355,1.0,2.0,95,0.00,,,0.00,0,Wunderground v.1.15,2013-12-04 06:21:00,
2013-12-04 00:24:00,33.5,32.2,29.83,North,355,2.0,2.0,95,0.00,,,0.00,0,Wunderground v.1.15,2013-12-04 06:24:00,
2013-12-04 00:25:00,33.5,32.2,29.83,North,355,2.0,4.0,95,0.00,,,0.00,0,Wunderground v.1.15,2013-12-04 06:25:00,
2013-12-04 00:27:00,33.5,32.2,29.84,North,355,2.0,4.0,95,0.00,,,0.00,0,Wunderground v.1.15,2013-12-04 06:27:00,
2013-12-04 00:29:00,33.5,32.2,29.83,NNE,16,3.0,4.0,95,0.00,,,0.00,0,Wunderground v.1.15,2013-12-04 06:29:00,
2013-12-04 00:31:00,33.5,32.2,29.83,NNE,17,3.0,3.0,95,0.00,,,0.00,0,Wunderground v.1.15,2013-12-04 06:31:00,
2013-12-04 00:34:00,33.5,32.2,29.83,NE,52,3.0,3.0,95,0.00,,,0.00,0,Wunderground v.1.15,2013-12-04 06:34:00,
2013-12-04 00:35:00,33.5,32.2,29.83,NE,38,3.0,5.0,95,0.00,,,0.00,0,Wunderground v.1.15,2013-12-04 06:35:00,
2013-12-04 00:39:00,33.4,32.1,29.82,NNE,21,4.0,6.0,95,0.00,,,0.00,0,Wunderground v.1.15,2013-12-04 06:39:00,
2013-12-04 00:40:00,33.4,32.1,29.82,NNE,31,4.0,5.0,95,0.00,,,0.00,0,Wunderground v.1.15,2013-12-04 06:40:00,
2013-12-04 00:41:00,33.4,32.1,29.82,NE,36,4.0,5.0,95,0.00,,,0.00,0,Wunderground v.1.15,2013-12-04 06:41:00,
2013-12-04 00:42:00,33.4,32.1,29.82,NE,35,4.0,5.0,95,0.00,,,0.00,0,Wunderground v.1.15,2013-12-04 06:42:00,
2013-12-04 00:47:00,33.4,32.1,29.81,NE,55,4.0,5.0,95,0.00,,,0.00,0,Wunderground v.1.15,2013-12-04 06:47:00,
2013-12-04 00:49:00,33.4,32.1,29.81,NNE,14,4.0,6.0,95,0.00,,,0.00,0,Wunderground v.1.15,2013-12-04 06:49:00,
2013-12-04 00:51:00,33.3,32.0,29.81,NE,46,3.0,4.0,95,0.00,,,0.00,0,Wunderground v.1.15,2013-12-04 06:51:00,
2013-12-04 00:52:00,33.3,32.0,29.81,NE,49,3.0,4.0,95,0.00,,,0.00,0,Wunderground v.1.15,2013-12-04 06:52:00,
2013-12-04 00:54:00,33.3,32.0,29.82,ENE,60,3.0,4.0,95,0.00,,,0.00,0,Wunderground v.1.15,2013-12-04 06:54:00,
2013-12-04 00:56:00,33.3,32.0,29.82,NNE,18,3.0,4.0,95,0.00,,,0.00,0,Wunderground v.1.15,2013-12-04 06:56:00,
2013-12-04 00:57:00,33.3,32.0,29.81,NE,55,3.0,4.0,95,0.00,,,0.00,0,Wunderground v.1.15,2013-12-04 06:57:00,
2013-12-04 00:59:00,33.3,32.0,29.82,NE,55,3.0,4.0,95,0.00,,,0.00,0,Wunderground v.1.15,2013-12-04 06:59:00,
2013-12-04 01:01:00,33.3,32.0,29.81,NE,34,2.0,3.0,95,0.00,,,0.00,0,Wunderground v.1.15,2013-12-04 07:01:00,
2013-12-04 01:04:00,33.3,32.0,29.82,NE,35,2.0,3.0,95,0.00,,,0.00,0,Wunderground v.1.15,2013-12-04 07:04:00,
2013-12-04 01:06:00,33.3,32.0,29.82,NNE,30,1.0,3.0,95,0.00,,,0.00,0,Wunderground v.1.15,2013-12-04 07:06:00,
2013-12-04 01:07:00,33.4,32.1,29.82,NNE,31,1.0,3.0,95,0.00,,,0.00,0,Wunderground v.1.15,2013-12-04 07:07:00,
2013-12-04 01:11:00,33.4,32.1,29.82,NE,46,1.0,2.0,95,0.00,,,0.00,0,Wunderground v.1.15,2013-12-04 07:11:00,
2013-12-04 01:12:00,33.4,32.1,29.82,NW,321,1.0,3.0,95,0.00,,,0.00,0,Wunderground v.1.15,2013-12-04 07:12:00,
2013-12-04 01:13:00,33.4,32.1,29.82,NNW,333,1.0,3.0,95,0.00,,,0.00,0,Wunderground v.1.15,2013-12-04 07:13:00,
2013-12-04 01:16:00,33.4,32.1,29.82,NNW,347,2.0,5.0,95,0.00,,,0.00,0,Wunderground v.1.15,2013-12-04 07:16:00,
2013-12-04 01:17:00,33.4,32.1,29.82,NE,53,2.0,5.0,95,0.00,,,0.00,0,Wunderground v.1.15,2013-12-04 07:17:00,
2013-12-04 01:20:00,33.4,32.1,29.82,NE,55,3.0,3.0,95,0.00,,,0.00,0,Wunderground v.1.15,2013-12-04 07:20:00,
2013-12-04 01:22:00,33.4,32.1,29.83,NE,46,3.0,3.0,95,0.00,,,0.00,0,Wunderground v.1.15,2013-12-04 07:22:00,
2013-12-04 01:24:00,33.4,32.1,29.83,NNE,30,3.0,3.0,95,0.00,,,0.00,0,Wunderground v.1.15,2013-12-04 07:24:00,
2013-12-04 01:26:00,33.4,32.1,29.83,North,11,3.0,6.0,95,0.00,,,0.00,0,Wunderground v.1.15,2013-12-04 07:26:00,
2013-12-04 01:27:00,33.4,32.1,29.83,NE,45,3.0,6.0,95,0.00,,,0.00,0,Wunderground v.1.15,2013-12-04 07:27:00,
2013-12-04 01:28:00,33.4,32.1,29.83,NNE,12,3.0,6.0,95,0.00,,,0.00,0,Wunderground v.1.15,2013-12-04 07:28:00,
2013-12-04 01:29:00,33.4,32.1,29.82,NE,41,3.0,6.0,95,0.00,,,0.00,0,Wunderground v.1.15,2013-12-04 07:29:00,
2013-12-04 01:32:00,33.4,32.1,29.83,NNE,19,4.0,5.0,95,0.00,,,0.00,0,Wunderground v.1.15,2013-12-04 07:32:00,
2013-12-04 01:33:00,33.4,32.1,29.83,NNE,19,4.0,5.0,95,0.00,,,0.00,0,Wunderground v.1.15,2013-12-04 07:33:00,
2013-12-04 01:34:00,33.4,32.1,29.83,NNE,19,4.0,5.0,95,0.00,,,0.00,0,Wunderground v.1.15,2013-12-04 07:34:00,
2013-12-04 01:37:00,33.4,32.1,29.83,NNE,25,3.0,5.0,95,0.00,,,0.00,0,Wunderground v.1.15,2013-12-04 07:37:00,
2013-12-04 01:40:00,33.4,32.1,29.82,NNE,26,3.0,3.0,95,0.00,,,0.00,0,Wunderground v.1.15,2013-12-04 07:40:00,
2013-12-04 01:42:00,33.4,32.1,29.82,NE,39,2.0,4.0,95,0.00,,,0.00,0,Wunderground v.1.15,2013-12-04 07:42:00,
2013-12-04 01:43:00,33.4,32.1,29.83,NE,52,2.0,4.0,95,0.00,,,0.00,0,Wunderground v.1.15,2013-12-04 07:43:00,
2013-12-04 01:45:00,33.4,32.1,29.83,NE,46,2.0,5.0,95,0.00,,,0.00,0,Wunderground v.1.15,2013-12-04 07:45:00,
2013-12-04 01:46:00,33.4,32.1,29.82,NE,44,3.0,5.0,95,0.00,,,0.00,0,Wunderground v.1.15,2013-12-04 07:46:00,
2013-12-04 01:48:00,33.4,32.1,29.82,NE,43,3.0,5.0,95,0.00,,,0.00,0,Wunderground v.1.15,2013-12-04 07:48:00,
2013-12-04 01:51:00,33.4,32.1,29.82,NE,34,2.0,4.0,95,0.00,,,0.00,0,Wunderground v.1.15,2013-12-04 07:51:00,
2013-12-04 01:52:00,33.4,32.1,29.82,NNE,26,2.0,4.0,95,0.00,,,0.00,0,Wunderground v.1.15,2013-12-04 07:52:00,
2013-12-04 01:54:00,33.4,32.1,29.82,NNE,14,3.0,6.0,95,0.00,,,0.00,0,Wunderground v.1.15,2013-12-04 07:54:00,
2013-12-04 01:56:00,33.4,32.1,29.82,NNE,20,3.0,6.0,95,0.00,,,0.00,0,Wunderground v.1.15,2013-12-04 07:56:00,
2013-12-04 01:57:00,33.4,32.1,29.82,NE,43,3.0,6.0,95,0.00,,,0.00,0,Wunderground v.1.15,2013-12-04 07:57:00,
2013-12-04 01:59:00,33.4,32.1,29.82,NE,36,3.0,6.0,95,0.00,,,0.00,0,Wunderground v.1.15,2013-12-04 07:59:00,
2013-12-04 02:02:00,33.4,32.1,29.82,NE,35,4.0,5.0,95,0.00,,,0.00,0,Wunderground v.1.15,2013-12-04 08:02:00,
2013-12-04 02:04:00,33.4,32.1,29.81,ENE,67,4.0,5.0,95,0.00,,,0.00,0,Wunderground v.1.15,2013-12-04 08:04:00,
2013-12-04 02:06:00,33.4,32.1,29.81,North,11,4.0,5.0,95,0.00,,,0.00,0,Wunderground v.1.15,2013-12-04 08:06:00,
2013-12-04 02:08:00,33.4,32.1,29.81,ENE,61,4.0,5.0,95,0.00,,,0.00,0,Wunderground v.1.15,2013-12-04 08:08:00,
2013-12-04 02:09:00,33.3,32.0,29.81,NE,46,4.0,5.0,95,0.00,,,0.00,0,Wunderground v.1.15,2013-12-04 08:09:00,
2013-12-04 02:10:00,33.4,32.1,29.81,NE,44,4.0,7.0,95,0.00,,,0.00,0,Wunderground v.1.15,2013-12-04 08:10:00,
2013-12-04 02:11:00,33.4,32.1,29.81,NNE,15,4.0,7.0,95,0.00,,,0.00,0,Wunderground v.1.15,2013-12-04 08:11:00,
2013-12-04 02:13:00,33.4,32.1,29.81,NNE,23,3.0,7.0,95,0.00,,,0.00,0,Wunderground v.1.15,2013-12-04 08:13:00,
2013-12-04 02:14:00,33.4,32.1,29.81,NE,54,3.0,7.0,95,0.00,,,0.00,0,Wunderground v.1.15,2013-12-04 08:14:00,
2013-12-04 02:15:00,33.4,32.1,29.81,NNE,20,3.0,7.0,95,0.00,,,0.00,0,Wunderground v.1.15,2013-12-04 08:15:00,
2013-12-04 02:17:00,33.4,32.1,29.82,NE,49,4.0,7.0,95,0.00,,,0.00,0,Wunderground v.1.15,2013-12-04 08:17:00,
2013-12-04 02:18:00,33.4,32.1,29.82,ENE,57,4.0,7.0,95,0.00,,,0.00,0,Wunderground v.1.15,2013-12-04 08:18:00,
2013-12-04 02:19:00,33.4,32.1,29.82,ENE,57,4.0,7.0,95,0.00,,,0.00,0,Wunderground v.1.15,2013-12-04 08:19:00,
2013-12-04 02:20:00,33.4,32.1,29.82,ENE,58,4.0,4.0,95,0.00,,,0.00,0,Wunderground v.1.15,2013-12-04 08:20:00,
2013-12-04 02:24:00,33.4,32.1,29.82,NE,50,3.0,4.0,95,0.00,,,0.00,0,Wunderground v.1.15,2013-12-04 08:24:00,
2013-12-04 02:25:00,33.4,32.1,29.82,NE,50,3.0,4.0,95,0.00,,,0.00,0,Wunderground v.1.15,2013-12-04 08:25:00,
2013-12-04 02:28:00,33.4,32.1,29.82,ENE,69,3.0,6.0,95,0.00,,,0.00,0,Wunderground v.1.15,2013-12-04 08:28:00,
2013-12-04 02:30:00,33.4,32.1,29.81,East,80,3.0,3.0,95,0.00,,,0.00,0,Wunderground v.1.15,2013-12-04 08:30:00,
2013-12-04 02:31:00,33.4,32.1,29.81,East,80,3.0,3.0,95,0.00,,,0.00,0,Wunderground v.1.15,2013-12-04 08:31:00,
2013-12-04 02:33:00,33.4,32.1,29.81,East,80,2.0,3.0,95,0.00,,,0.00,0,Wunderground v.1.15,2013-12-04 08:33:00,
2013-12-04 02:35:00,33.4,32.1,29.81,ENE,73,2.0,3.0,95,0.00,,,0.00,0,Wunderground v.1.15,2013-12-04 08:35:00,
2013-12-04 02:37:00,33.4,32.1,29.81,ENE,74,2.0,3.0,95,0.00,,,0.00,0,Wunderground v.1.15,2013-12-04 08:37:00,
2013-12-04 02:38:00,33.4,32.1,29.81,ENE,74,1.0,3.0,95,0.00,,,0.00,0,Wunderground v.1.15,2013-12-04 08:38:00,
2013-12-04 02:39:00,33.4,32.1,29.81,ENE,74,1.0,3.0,95,0.00,,,0.00,0,Wunderground v.1.15,2013-12-04 08:39:00,
2013-12-04 02:40:00,33.4,32.1,29.81,ENE,74,1.0,1.0,95,0.00,,,0.00,0,Wunderground v.1.15,2013-12-04 08:40:00,
2013-12-04 02:45:00,33.4,32.1,29.81,ENE,64,1.0,2.0,95,0.00,,,0.00,0,Wunderground v.1.15,2013-12-04 08:45:00,
2013-12-04 02:46:00,33.4,32.1,29.80,East,87,2.0,2.0,95,0.00,,,0.00,0,Wunderground v.1.15,2013-12-04 08:46:00,
2013-12-04 02:47:00,33.4,32.1,29.80,NE,50,2.0,2.0,95,0.00,,,0.00,0,Wunderground v.1.15,2013-12-04 08:47:00,
2013-12-04 02:49:00,33.4,32.1,29.80,NNE,25,2.0,4.0,95,0.00,,,0.00,0,Wunderground v.1.15,2013-12-04 08:49:00,
2013-12-04 02:51:00,33.4,32.1,29.79,NE,52,3.0,4.0,95,0.00,,,0.00,0,Wunderground v.1.15,2013-12-04 08:51:00,
2013-12-04 02:52:00,33.4,32.1,29.79,NE,47,3.0,4.0,95,0.00,,,0.00,0,Wunderground v.1.15,2013-12-04 08:52:00,
2013-12-04 02:54:00,33.4,32.1,29.79,NE,47,3.0,4.0,95,0.00,,,0.00,0,Wunderground v.1.15,2013-12-04 08:54:00,
2013-12-04 02:57:00,33.4,32.1,29.80,NE,47,2.0,4.0,95,0.00,,,0.00,0,Wunderground v.1.15,2013-12-04 08:57:00,
2013-12-04 02:58:00,33.4,32.1,29.80,NE,47,2.0,4.0,95,0.00,,,0.00,0,Wunderground v.1.15,2013-12-04 08:58:00,
2013-12-04 02:59:00,33.4,32.1,29.80,NE,47,2.0,4.0,95,0.00,,,0.00,0,Wunderground v.1.15,2013-12-04 08:59:00,
2013-12-04 03:00:00,33.4,32.1,29.80,NE,47,1.0,1.0,95,0.00,,,0.00,0,Wunderground v.1.15,2013-12-04 09:00:00,
2013-12-04 03:03:00,33.4,32.1,29.80,ESE,106,1.0,8.0,95,0.00,,,0.00,0,Wunderground v.1.15,2013-12-04 09:03:00,
2013-12-04 03:05:00,33.4,32.1,29.79,ENE,63,3.0,8.0,95,0.00,,,0.00,0,Wunderground v.1.15,2013-12-04 09:05:00,
2013-12-04 03:06:00,33.4,32.1,29.79,NE,45,3.0,8.0,95,0.00,,,0.00,0,Wunderground v.1.15,2013-12-04 09:06:00,
2013-12-04 03:09:00,33.4,32.1,29.78,East,83,5.0,8.0,95,0.00,,,0.00,0,Wunderground v.1.15,2013-12-04 09:09:00,
2013-12-04 03:11:00,33.4,32.1,29.79,NE,48,5.0,6.0,95,0.00,,,0.00,0,Wunderground v.1.15,2013-12-04 09:11:00,
2013-12-04 03:13:00,33.4,32.1,29.78,NE,46,5.0,6.0,95,0.00,,,0.00,0,Wunderground v.1.15,2013-12-04 09:13:00,
2013-12-04 03:14:00,33.4,32.1,29.78,ENE,64,5.0,6.0,95,0.00,,,0.00,0,Wunderground v.1.15,2013-12-04 09:14:00,
2013-12-04 03:16:00,33.4,32.1,29.78,East,88,5.0,7.0,95,0.00,,,0.00,0,Wunderground v.1.15,2013-12-04 09:16:00,
2013-12-04 03:17:00,33.4,32.1,29.78,ESE,120,5.0,11.0,95,0.00,,,0.00,0,Wunderground v.1.15,2013-12-04 09:17:00,
2013-12-04 03:19:00,33.4,32.1,29.78,NNE,26,5.0,11.0,95,0.00,,,0.00,0,Wunderground v.1.15,2013-12-04 09:19:00,
2013-12-04 03:20:00,33.4,32.1,29.78,East,90,5.0,5.0,95,0.00,,,0.00,0,Wunderground v.1.15,2013-12-04 09:20:00,
2013-12-04 03:21:00,33.4,32.1,29.78,NE,43,5.0,5.0,95,0.00,,,0.00,0,Wunderground v.1.15,2013-12-04 09:21:00,
2013-12-04 03:24:00,33.4,32.1,29.78,East,90,5.0,5.0,95,0.00,,,0.00,0,Wunderground v.1.15,2013-12-04 09:24:00,
2013-12-04 03:25:00,33.4,32.1,29.78,NE,44,4.0,5.0,95,0.00,,,0.00,0,Wunderground v.1.15,2013-12-04 09:25:00,
2013-12-04 03:26:00,33.4,32.1,29.78,ENE,59,4.0,5.0,95,0.00,,,0.00,0,Wunderground v.1.15,2013-12-04 09:26:00,
2013-12-04 03:27:00,33.4,32.1,29.78,ENE,58,3.0,5.0,95,0.00,,,0.00,0,Wunderground v.1.15,2013-12-04 09:27:00,
2013-12-04 03:30:00,33.4,32.1,29.78,NNE,23,3.0,4.0,95,0.00,,,0.00,0,Wunderground v.1.15,2013-12-04 09:30:00,
2013-12-04 03:32:00,33.4,32.1,29.79,NE,53,3.0,4.0,95,0.00,,,0.00,0,Wunderground v.1.15,2013-12-04 09:32:00,
2013-12-04 03:33:00,33.4,32.1,29.79,NE,52,3.0,4.0,95,0.00,,,0.00,0,Wunderground v.1.15,2013-12-04 09:33:00,
2013-12-04 03:34:00,33.4,32.1,29.79,NE,52,3.0,4.0,95,0.00,,,0.00,0,Wunderground v.1.15,2013-12-04 09:34:00,
2013-12-04 03:36:00,33.4,32.1,29.79,NNE,12,3.0,4.0,95,0.00,,,0.00,0,Wunderground v.1.15,2013-12-04 09:36:00,
2013-12-04 03:39:00,33.4,32.1,29.79,ENE,65,3.0,4.0,95,0.00,,,0.00,0,Wunderground v.1.15,2013-12-04 09:39:00,
2013-12-04 03:40:00,33.4,32.1,29.79,East,79,3.0,3.0,95,0.00,,,0.00,0,Wunderground v.1.15,2013-12-04 09:40:00,
2013-12-04 03:42:00,33.4,32.1,29.79,ENE,74,2.0,3.0,95,0.00,,,0.00,0,Wunderground v.1.15,2013-12-04 09:42:00,
2013-12-04 03:45:00,33.4,32.1,29.79,ENE,63,2.0,5.0,95,0.00,,,0.00,0,Wunderground v.1.15,2013-12-04 09:45:00,
2013-12-04 03:46:00,33.4,32.1,29.79,NE,55,3.0,5.0,95,0.00,,,0.00,0,Wunderground v.1.15,2013-12-04 09:46:00,
2013-12-04 03:47:00,33.4,32.1,29.78,NE,55,2.0,5.0,95,0.00,,,0.00,0,Wunderground v.1.15,2013-12-04 09:47:00,
2013-12-04 03:48:00,33.4,32.1,29.78,NE,55,2.0,5.0,95,0.00,,,0.00,0,Wunderground v.1.15,2013-12-04 09:48:00,
2013-12-04 03:49:00,33.4,32.1,29.78,NE,55,2.0,5.0,95,0.00,,,0.00,0,Wunderground v.1.15,2013-12-04 09:49:00,
2013-12-04 03:50:00,33.4,32.1,29.78,North,5,2.0,2.0,95,0.00,,,0.00,0,Wunderground v.1.15,2013-12-04 09:50:00,
2013-12-04 03:53:00,33.4,32.1,29.78,NNE,24,2.0,3.0,95,0.00,,,0.00,0,Wunderground v.1.15,2013-12-04 09:53:00,
2013-12-04 03:55:00,33.4,32.1,29.78,North,350,2.0,5.0,95,0.00,,,0.00,0,Wunderground v.1.15,2013-12-04 09:55:00,
2013-12-04 03:57:00,33.4,32.1,29.78,NNE,29,2.0,5.0,95,0.00,,,0.00,0,Wunderground v.1.15,2013-12-04 09:57:00,
2013-12-04 04:00:00,33.4,32.1,29.78,NNE,30,2.0,2.0,95,0.00,,,0.00,0,Wunderground v.1.15,2013-12-04 10:00:00,
2013-12-04 04:02:00,33.4,32.1,29.78,NNE,26,2.0,5.0,95,0.00,,,0.00,0,Wunderground v.1.15,2013-12-04 10:02:00,
2013-12-04 04:03:00,33.4,32.1,29.79,NNE,31,3.0,5.0,95,0.00,,,0.00,0,Wunderground v.1.15,2013-12-04 10:03:00,
2013-12-04 04:04:00,33.4,32.1,29.79,North,355,3.0,5.0,95,0.00,,,0.00,0,Wunderground v.1.15,2013-12-04 10:04:00,
2013-12-04 04:06:00,33.4,32.1,29.79,NE,47,2.0,5.0,95,0.00,,,0.00,0,Wunderground v.1.15,2013-12-04 10:06:00,
2013-12-04 04:08:00,33.4,32.1,29.79,ENE,70,3.0,5.0,95,0.00,,,0.00,0,Wunderground v.1.15,2013-12-04 10:08:00,
2013-12-04 04:13:00,33.4,32.1,29.78,NNE,23,3.0,4.0,95,0.00,,,0.00,0,Wunderground v.1.15,2013-12-04 10:13:00,
2013-12-04 04:14:00,33.4,32.1,29.78,NE,47,3.0,4.0,95,0.00,,,0.00,0,Wunderground v.1.15,2013-12-04 10:14:00,
2013-12-04 04:15:00,33.4,32.1,29.78,NE,51,3.0,4.0,95,0.00,,,0.00,0,Wunderground v.1.15,2013-12-04 10:15:00,
2013-12-04 04:17:00,33.4,32.1,29.78,ENE,65,3.0,4.0,95,0.00,,,0.00,0,Wunderground v.1.15,2013-12-04 10:17:00,
2013-12-04 04:20:00,33.4,32.1,29.78,ENE,68,3.0,6.0,95,0.00,,,0.00,0,Wunderground v.1.15,2013-12-04 10:20:00,
2013-12-04 04:21:00,33.4,32.1,29.78,ENE,59,3.0,6.0,95,0.00,,,0.00,0,Wunderground v.1.15,2013-12-04 10:21:00,
2013-12-04 04:23:00,33.4,32.1,29.77,East,85,3.0,6.0,95,0.00,,,0.00,0,Wunderground v.1.15,2013-12-04 10:23:00,
2013-12-04 04:24:00,33.4,32.1,29.77,ENE,63,3.0,6.0,95,0.00,,,0.00,0,Wunderground v.1.15,2013-12-04 10:24:00,
2013-12-04 04:25:00,33.4,32.1,29.77,ENE,57,3.0,6.0,95,0.00,,,0.00,0,Wunderground v.1.15,2013-12-04 10:25:00,
2013-12-04 04:28:00,33.4,32.1,29.77,NE,56,4.0,6.0,95,0.00,,,0.00,0,Wunderground v.1.15,2013-12-04 10:28:00,
2013-12-04 04:30:00,33.4,32.1,29.77,ENE,76,3.0,3.0,95,0.00,,,0.00,0,Wunderground v.1.15,2013-12-04 10:30:00,
2013-12-04 04:31:00,33.4,32.1,29.77,ENE,76,3.0,3.0,95,0.00,,,0.00,0,Wunderground v.1.15,2013-12-04 10:31:00,
2013-12-04 04:35:00,33.4,32.1,29.77,NE,36,2.0,3.0,95,0.00,,,0.00,0,Wunderground v.1.15,2013-12-04 10:35:00,
2013-12-04 04:37:00,33.4,32.1,29.77,NE,36,1.0,3.0,95,0.00,,,0.00,0,Wunderground v.1.15,2013-12-04 10:37:00,
2013-12-04 04:39:00,33.4,32.1,29.77,NE,36,1.0,3.0,95,0.00,,,0.00,0,Wunderground v.1.15,2013-12-04 10:39:00,
2013-12-04 04:42:00,33.4,32.1,29.77,ENE,78,1.0,1.0,95,0.00,,,0.00,0,Wunderground v.1.15,2013-12-04 10:42:00,
2013-12-04 04:43:00,33.4,32.1,29.77,ENE,78,1.0,1.0,95,0.00,,,0.00,0,Wunderground v.1.15,2013-12-04 10:43:00,
2013-12-04 04:45:00,33.4,32.1,29.77,ENE,70,0.0,3.0,95,0.00,,,0.00,0,Wunderground v.1.15,2013-12-04 10:45:00,
2013-12-04 04:46:00,33.5,32.2,29.77,North,360,1.0,5.0,95,0.00,,,0.00,0,Wunderground v.1.15,2013-12-04 10:46:00,
2013-12-04 04:47:00,33.5,32.2,29.77,ENE,63,1.0,5.0,95,0.00,,,0.00,0,Wunderground v.1.15,2013-12-04 10:47:00,
2013-12-04 04:48:00,33.5,32.2,29.77,ENE,70,1.0,5.0,95,0.00,,,0.00,0,Wunderground v.1.15,2013-12-04 10:48:00,
2013-12-04 04:49:00,33.5,32.2,29.77,ENE,70,2.0,5.0,95,0.00,,,0.00,0,Wunderground v.1.15,2013-12-04 10:49:00,
2013-12-04 04:52:00,33.5,32.2,29.78,ENE,66,2.0,3.0,95,0.00,,,0.00,0,Wunderground v.1.15,2013-12-04 10:52:00,
2013-12-04 04:53:00,33.5,32.2,29.78,East,90,3.0,5.0,95,0.00,,,0.00,0,Wunderground v.1.15,2013-12-04 10:53:00,
2013-12-04 04:54:00,33.5,32.2,29.78,ESE,112,3.0,5.0,95,0.00,,,0.00,0,Wunderground v.1.15,2013-12-04 10:54:00,
2013-12-04 04:57:00,33.5,32.2,29.77,ENE,58,3.0,5.0,95,0.00,,,0.00,0,Wunderground v.1.15,2013-12-04 10:57:00,
2013-12-04 04:58:00,33.5,32.2,29.77,ENE,76,3.0,5.0,95,0.00,,,0.00,0,Wunderground v.1.15,2013-12-04 10:58:00,
2013-12-04 04:59:00,33.5,32.2,29.77,ESE,102,3.0,5.0,95,0.00,,,0.00,0,Wunderground v.1.15,2013-12-04 10:59:00,
2013-12-04 05:00:00,33.5,32.2,29.77,ENE,71,3.0,4.0,95,0.00,,,0.00,0,Wunderground v.1.15,2013-12-04 11:00:00,
2013-12-04 05:04:00,33.5,32.2,29.78,East,100,4.0,7.0,95,0.00,,,0.00,0,Wunderground v.1.15,2013-12-04 11:04:00,
2013-12-04 05:05:00,33.5,32.2,29.78,ENE,65,4.0,7.0,95,0.00,,,0.00,0,Wunderground v.1.15,2013-12-04 11:05:00,
2013-12-04 05:06:00,33.5,32.2,29.78,NE,35,4.0,7.0,95,0.00,,,0.00,0,Wunderground v.1.15,2013-12-04 11:06:00,
2013-12-04 05:07:00,33.5,32.2,29.78,NNE,14,4.0,7.0,95,0.00,,,0.00,0,Wunderground v.1.15,2013-12-04 11:07:00,
2013-12-04 05:08:00,33.5,32.2,29.78,NNE,17,4.0,7.0,95,0.00,,,0.00,0,Wunderground v.1.15,2013-12-04 11:08:00,
2013-12-04 05:09:00,33.5,32.2,29.78,NNW,348,4.0,7.0,95,0.00,,,0.00,0,Wunderground v.1.15,2013-12-04 11:09:00,
2013-12-04 05:13:00,33.6,32.3,29.78,NE,42,3.0,4.0,95,0.00,,,0.00,0,Wunderground v.1.15,2013-12-04 11:13:00,
2013-12-04 05:14:00,33.6,32.3,29.78,NE,42,2.0,4.0,95,0.00,,,0.00,0,Wunderground v.1.15,2013-12-04 11:14:00,
2013-12-04 05:16:00,33.6,32.3,29.78,NNE,32,2.0,5.0,95,0.00,,,0.00,0,Wunderground v.1.15,2013-12-04 11:16:00,
2013-12-04 05:17:00,33.6,32.3,29.78,NE,38,2.0,5.0,95,0.00,,,0.00,0,Wunderground v.1.15,2013-12-04 11:17:00,
2013-12-04 05:18:00,33.6,32.3,29.78,NNE,29,3.0,5.0,95,0.00,,,0.00,0,Wunderground v.1.15,2013-12-04 11:18:00,
2013-12-04 05:21:00,33.6,32.3,29.78,NNE,25,3.0,4.0,95,0.00,,,0.00,0,Wunderground v.1.15,2013-12-04 11:21:00,
2013-12-04 05:22:00,33.6,32.3,29.78,NNE,26,3.0,4.0,95,0.00,,,0.00,0,Wunderground v.1.15,2013-12-04 11:22:00,
2013-12-04 05:25:00,33.6,32.3,29.78,NE,34,3.0,4.0,95,0.00,,,0.00,0,Wunderground v.1.15,2013-12-04 11:25:00,
2013-12-04 05:26:00,33.6,32.3,29.78,NE,34,3.0,4.0,95,0.00,,,0.00,0,Wunderground v.1.15,2013-12-04 11:26:00,
2013-12-04 05:28:00,33.6,32.3,29.77,NE,36,3.0,4.0,95,0.00,,,0.00,0,Wunderground v.1.15,2013-12-04 11:28:00,
2013-12-04 05:29:00,33.6,32.3,29.78,NE,36,3.0,4.0,95,0.00,,,0.00,0,Wunderground v.1.15,2013-12-04 11:29:00,
2013-12-04 05:31:00,33.6,32.3,29.78,NE,36,2.0,3.0,95,0.00,,,0.00,0,Wunderground v.1.15,2013-12-04 11:31:00,
2013-12-04 05:32:00,33.6,32.3,29.78,NE,36,2.0,3.0,95,0.00,,,0.00,0,Wunderground v.1.15,2013-12-04 11:32:00,
2013-12-04 05:33:00,33.6,32.3,29.78,NE,36,2.0,3.0,95,0.00,,,0.00,0,Wunderground v.1.15,2013-12-04 11:33:00,
2013-12-04 05:34:00,33.6,32.3,29.77,NE,36,2.0,3.0,95,0.00,,,0.00,0,Wunderground v.1.15,2013-12-04 11:34:00,
2013-12-04 05:39:00,33.6,32.3,29.78,NNE,30,2.0,5.0,95,0.00,,,0.00,0,Wunderground v.1.15,2013-12-04 11:39:00,
2013-12-04 05:40:00,33.6,32.3,29.78,North,350,2.0,2.0,95,0.00,,,0.00,0,Wunderground v.1.15,2013-12-04 11:40:00,
2013-12-04 05:42:00,33.6,32.3,29.77,NNE,14,2.0,3.0,95,0.00,,,0.00,0,Wunderground v.1.15,2013-12-04 11:42:00,
2013-12-04 05:44:00,33.5,32.2,29.77,NE,42,3.0,3.0,95,0.00,,,0.00,0,Wunderground v.1.15,2013-12-04 11:44:00,
2013-12-04 05:45:00,33.6,32.3,29.77,NE,41,3.0,5.0,95,0.00,,,0.00,0,Wunderground v.1.15,2013-12-04 11:45:00,
2013-12-04 05:47:00,33.6,32.3,29.77,NE,51,3.0,5.0,95,0.00,,,0.00,0,Wunderground v.1.15,2013-12-04 11:47:00,
2013-12-04 05:49:00,33.6,32.3,29.77,ENE,67,3.0,5.0,95,0.00,,,0.00,0,Wunderground v.1.15,2013-12-04 11:49:00,
2013-12-04 05:51:00,33.6,32.3,29.77,ESE,109,3.0,3.0,95,0.00,,,0.00,0,Wunderground v.1.15,2013-12-04 11:51:00,
2013-12-04 05:52:00,33.5,32.2,29.77,ESE,115,3.0,3.0,95,0.00,,,0.00,0,Wunderground v.1.15,2013-12-04 11:52:00,
2013-12-04 05:54:00,33.5,32.2,29.77,ENE,57,2.0,5.0,95,0.00,,,0.00,0,Wunderground v.1.15,2013-12-04 11:54:00,
2013-12-04 05:56:00,33.6,32.3,29.77,NE,40,2.0,6.0,95,0.00,,,0.00,0,Wunderground v.1.15,2013-12-04 11:56:00,
2013-12-04 05:59:00,33.6,32.3,29.77,NE,44,3.0,6.0,95,0.00,,,0.00,0,Wunderground v.1.15,2013-12-04 11:59:00,
2013-12-04 06:01:00,33.6,32.3,29.78,ENE,76,3.0,3.0,95,0.00,,,0.00,0,Wunderground v.1.15,2013-12-04 12:01:00,
2013-12-04 06:04:00,33.6,32.3,29.77,NNE,29,3.0,3.0,95,0.00,,,0.00,0,Wunderground v.1.15,2013-12-04 12:04:00,
2013-12-04 06:06:00,33.6,32.3,29.78,NE,42,3.0,5.0,95,0.00,,,0.00,0,Wunderground v.1.15,2013-12-04 12:06:00,
2013-12-04 06:07:00,33.6,32.3,29.77,NE,49,3.0,5.0,95,0.00,,,0.00,0,Wunderground v.1.15,2013-12-04 12:07:00,
2013-12-04 06:09:00,33.6,32.3,29.77,ENE,63,3.0,5.0,95,0.00,,,0.00,0,Wunderground v.1.15,2013-12-04 12:09:00,
2013-12-04 06:11:00,33.6,32.3,29.77,ENE,63,3.0,3.0,95,0.00,,,0.00,0,Wunderground v.1.15,2013-12-04 12:11:00,
2013-12-04 06:15:00,33.6,32.3,29.77,NNE,29,3.0,5.0,95,0.00,,,0.00,0,Wunderground v.1.15,2013-12-04 12:15:00,
2013-12-04 06:16:00,33.7,32.4,29.77,NNE,29,3.0,5.0,95,0.00,,,0.00,0,Wunderground v.1.15,2013-12-04 12:16:00,
2013-12-04 06:19:00,33.7,32.4,29.77,SE,127,3.0,7.0,95,0.00,,,0.00,0,Wunderground v.1.15,2013-12-04 12:19:00,
2013-12-04 06:20:00,33.7,32.4,29.77,NE,44,3.0,5.0,95,0.00,,,0.00,0,Wunderground v.1.15,2013-12-04 12:20:00,
2013-12-04 06:21:00,33.7,32.4,29.77,NE,53,3.0,5.0,95,0.00,,,0.00,0,Wunderground v.1.15,2013-12-04 12:21:00,
2013-12-04 06:22:00,33.7,32.4,29.77,NE,56,3.0,5.0,95,0.00,,,0.00,0,Wunderground v.1.15,2013-12-04 12:22:00,
2013-12-04 06:26:00,33.7,32.4,29.77,ENE,74,4.0,13.0,95,0.00,,,0.00,0,Wunderground v.1.15,2013-12-04 12:26:00,
2013-12-04 06:27:00,33.7,32.4,29.77,East,82,5.0,13.0,95,0.00,,,0.00,0,Wunderground v.1.15,2013-12-04 12:27:00,
2013-12-04 06:28:00,33.7,32.4,29.77,East,80,5.0,13.0,95,0.00,,,0.00,0,Wunderground v.1.15,2013-12-04 12:28:00,
2013-12-04 06:31:00,33.7,32.4,29.77,NNE,27,4.0,5.0,95,0.00,,,0.00,0,Wunderground v.1.15,2013-12-04 12:31:00,
2013-12-04 06:32:00,33.7,32.4,29.76,NE,53,5.0,5.0,95,0.00,,,0.00,0,Wunderground v.1.15,2013-12-04 12:32:00,
2013-12-04 06:33:00,33.7,32.4,29.77,ENE,62,4.0,5.0,95,0.00,,,0.00,0,Wunderground v.1.15,2013-12-04 12:33:00,
2013-12-04 06:35:00,33.7,32.4,29.77,ENE,62,4.0,5.0,95,0.00,,,0.00,0,Wunderground v.1.15,2013-12-04 12:35:00,
2013-12-04 06:39:00,33.6,32.3,29.77,East,81,2.0,5.0,95,0.00,,,0.00,0,Wunderground v.1.15,2013-12-04 12:39:00,
2013-12-04 06:41:00,33.7,32.4,29.77,ENE,67,2.0,6.0,95,0.00,,,0.00,0,Wunderground v.1.15,2013-12-04 12:41:00,
2013-12-04 06:43:00,33.7,32.4,29.77,ENE,62,2.0,7.0,95,0.00,,,0.00,0,Wunderground v.1.15,2013-12-04 12:43:00,
2013-12-04 06:44:00,33.6,32.3,29.77,SE,126,2.0,7.0,95,0.00,,,0.00,0,Wunderground v.1.15,2013-12-04 12:44:00,
2013-12-04 06:48:00,33.7,32.4,29.76,NE,44,4.0,7.0,95,0.00,,,0.00,0,Wunderground v.1.15,2013-12-04 12:48:00,
2013-12-04 06:49:00,33.7,32.4,29.76,NE,51,4.0,7.0,95,0.00,,,0.00,0,Wunderground v.1.15,2013-12-04 12:49:00,
2013-12-04 06:50:00,33.7,32.4,29.76,NNE,33,4.0,4.0,95,0.00,,,0.00,0,Wunderground v.1.15,2013-12-04 12:50:00,
2013-12-04 06:51:00,33.7,32.4,29.76,NNE,21,4.0,4.0,95,0.00,,,0.00,0,Wunderground v.1.15,2013-12-04 12:51:00,
2013-12-04 06:52:00,33.7,32.4,29.76,NNE,20,4.0,4.0,95,0.00,,,0.00,0,Wunderground v.1.15,2013-12-04 12:52:00,
2013-12-04 06:54:00,33.7,32.4,29.76,NNE,20,4.0,4.0,95,0.00,,,0.00,0,Wunderground v.1.15,2013-12-04 12:54:00,
2013-12-04 06:57:00,33.7,32.4,29.76,NNE,24,3.0,4.0,95,0.00,,,0.00,0,Wunderground v.1.15,2013-12-04 12:57:00,
2013-12-04 06:59:00,33.7,32.4,29.76,NNE,30,3.0,4.0,95,0.00,,,0.00,0,Wunderground v.1.15,2013-12-04 12:59:00,
2013-12-04 07:01:00,33.7,32.4,29.76,NE,42,3.0,5.0,95,0.00,,,0.00,0,Wunderground v.1.15,2013-12-04 13:01:00,
2013-12-04 07:02:00,33.7,32.4,29.76,NE,34,3.0,5.0,95,0.00,,,0.00,0,Wunderground v.1.15,2013-12-04 13:02:00,
2013-12-04 07:03:00,33.7,32.4,29.75,NNE,28,3.0,5.0,95,0.00,,,0.00,0,Wunderground v.1.15,2013-12-04 13:03:00,
2013-12-04 07:04:00,33.6,32.3,29.75,North,5,3.0,5.0,95,0.00,,,0.00,0,Wunderground v.1.15,2013-12-04 13:04:00,
2013-12-04 07:05:00,33.7,32.4,29.75,North,5,3.0,5.0,95,0.00,,,0.00,0,Wunderground v.1.15,2013-12-04 13:05:00,
2013-12-04 07:07:00,33.7,32.4,29.75,NNE,15,3.0,6.0,95,0.00,,,0.00,0,Wunderground v.1.15,2013-12-04 13:07:00,
2013-12-04 07:09:00,33.7,32.4,29.75,North,5,3.0,6.0,95,0.00,,,0.00,0,Wunderground v.1.15,2013-12-04 13:09:00,
2013-12-04 07:11:00,33.7,32.4,29.75,NNE,31,3.0,6.0,95,0.00,,,0.00,0,Wunderground v.1.15,2013-12-04 13:11:00,
2013-12-04 07:12:00,33.7,32.4,29.75,NE,49,3.0,6.0,95,0.00,,,0.00,0,Wunderground v.1.15,2013-12-04 13:12:00,
2013-12-04 07:15:00,33.7,32.4,29.75,NE,44,3.0,6.0,95,0.00,,,0.00,0,Wunderground v.1.15,2013-12-04 13:15:00,
2013-12-04 07:16:00,33.7,32.4,29.75,NE,52,3.0,6.0,95,0.00,,,0.00,0,Wunderground v.1.15,2013-12-04 13:16:00,
2013-12-04 07:18:00,33.7,32.4,29.75,NE,52,3.0,6.0,95,0.00,,,0.00,0,Wunderground v.1.15,2013-12-04 13:18:00,
2013-12-04 07:20:00,33.7,32.4,29.75,NNE,22,3.0,3.0,95,0.00,,,0.00,0,Wunderground v.1.15,2013-12-04 13:20:00,
2013-12-04 07:22:00,33.7,32.4,29.75,NE,36,2.0,3.0,95,0.00,,,0.00,0,Wunderground v.1.15,2013-12-04 13:22:00,
2013-12-04 07:25:00,33.7,32.4,29.75,East,92,2.0,3.0,95,0.00,,,0.00,0,Wunderground v.1.15,2013-12-04 13:25:00,
2013-12-04 07:28:00,33.7,32.4,29.75,NE,34,3.0,5.0,95,0.00,,,0.00,0,Wunderground v.1.15,2013-12-04 13:28:00,
2013-12-04 07:29:00,33.7,32.4,29.75,ENE,63,3.0,6.0,95,0.00,,,0.00,0,Wunderground v.1.15,2013-12-04 13:29:00,
2013-12-04 07:30:00,33.7,32.4,29.75,East,96,3.0,5.0,95,0.00,,,0.00,0,Wunderground v.1.15,2013-12-04 13:30:00,
2013-12-04 07:31:00,33.7,32.4,29.75,East,92,3.0,5.0,95,0.00,,,0.00,0,Wunderground v.1.15,2013-12-04 13:31:00,
2013-12-04 07:33:00,33.7,32.4,29.74,ENE,64,3.0,5.0,95,0.00,,,0.00,0,Wunderground v.1.15,2013-12-04 13:33:00,
2013-12-04 07:36:00,33.7,32.4,29.74,ENE,73,3.0,5.0,95,0.00,,,0.00,0,Wunderground v.1.15,2013-12-04 13:36:00,
2013-12-04 07:38:00,33.7,32.7,29.74,NE,53,3.0,5.0,96,0.00,,,0.00,0,Wunderground v.1.15,2013-12-04 13:38:00,
2013-12-04 07:39:00,33.7,32.4,29.74,NE,40,3.0,5.0,95,0.00,,,0.00,0,Wunderground v.1.15,2013-12-04 13:39:00,
2013-12-04 07:41:00,33.7,32.7,29.74,ENE,65,3.0,4.0,96,0.00,,,0.00,0,Wunderground v.1.15,2013-12-04 13:41:00,
2013-12-04 07:45:00,33.7,32.7,29.74,ENE,57,3.0,5.0,96,0.00,,,0.00,0,Wunderground v.1.15,2013-12-04 13:45:00,
2013-12-04 07:46:00,33.7,32.7,29.74,East,89,3.0,5.0,96,0.00,,,0.00,0,Wunderground v.1.15,2013-12-04 13:46:00,
2013-12-04 07:47:00,33.7,32.7,29.74,ESE,102,3.0,5.0,96,0.00,,,0.00,0,Wunderground v.1.15,2013-12-04 13:47:00,
2013-12-04 07:48:00,33.7,32.7,29.74,East,88,3.0,5.0,96,0.00,,,0.00,0,Wunderground v.1.15,2013-12-04 13:48:00,
2013-12-04 07:49:00,33.7,32.7,29.74,East,88,3.0,5.0,96,0.00,,,0.00,0,Wunderground v.1.15,2013-12-04 13:49:00,
2013-12-04 07:50:00,33.7,32.7,29.74,East,88,2.0,2.0,96,0.00,,,0.00,0,Wunderground v.1.15,2013-12-04 13:50:00,
2013-12-04 07:51:00,33.7,32.7,29.75,East,84,2.0,2.0,96,0.00,,,0.00,0,Wunderground v.1.15,2013-12-04 13:51:00,
2013-12-04 07:54:00,33.7,32.7,29.75,North,5,1.0,2.0,96,0.00,,,0.00,0,Wunderground v.1.15,2013-12-04 13:54:00,
2013-12-04 07:55:00,33.7,32.7,29.75,NNE,17,1.0,3.0,96,0.00,,,0.00,0,Wunderground v.1.15,2013-12-04 13:55:00,
2013-12-04 07:57:00,33.7,32.7,29.74,ENE,59,1.0,5.0,96,0.00,,,0.00,0,Wunderground v.1.15,2013-12-04 13:57:00,
2013-12-04 07:58:00,33.7,32.7,29.74,NE,53,2.0,5.0,96,0.00,,,0.00,0,Wunderground v.1.15,2013-12-04 13:58:00,
2013-12-04 08:02:00,33.8,32.8,29.75,NE,40,3.0,4.0,96,0.00,,,0.00,5,Wunderground v.1.15,2013-12-04 14:02:00,
2013-12-04 08:04:00,33.8,32.8,29.75,NE,40,3.0,4.0,96,0.00,,,0.00,5,Wunderground v.1.15,2013-12-04 14:04:00,
2013-12-04 08:05:00,33.8,32.8,29.75,NE,40,3.0,4.0,96,0.00,,,0.00,5,Wunderground v.1.15,2013-12-04 14:05:00,
2013-12-04 08:06:00,33.8,32.8,29.75,NE,39,3.0,4.0,96,0.00,,,0.00,5,Wunderground v.1.15,2013-12-04 14:06:00,
2013-12-04 08:11:00,33.8,32.8,29.74,ENE,60,3.0,5.0,96,0.00,,,0.00,7,Wunderground v.1.15,2013-12-04 14:11:00,
2013-12-04 08:12:00,33.8,32.8,29.74,ENE,59,3.0,5.0,96,0.00,,,0.00,7,Wunderground v.1.15,2013-12-04 14:12:00,
2013-12-04 08:14:00,33.8,32.8,29.74,East,97,3.0,5.0,96,0.00,,,0.00,7,Wunderground v.1.15,2013-12-04 14:14:00,
2013-12-04 08:16:00,33.8,32.8,29.75,NNE,30,3.0,5.0,96,0.00,,,0.00,7,Wunderground v.1.15,2013-12-04 14:16:00,
2013-12-04 08:18:00,33.8,32.8,29.74,ENE,57,3.0,5.0,96,0.00,,,0.00,7,Wunderground v.1.15,2013-12-04 14:18:00,
2013-12-04 08:19:00,33.8,32.8,29.74,ENE,76,4.0,5.0,96,0.00,,,0.00,7,Wunderground v.1.15,2013-12-04 14:19:00,
2013-12-04 08:24:00,33.8,32.8,29.75,East,81,4.0,7.0,96,0.00,,,0.00,7,Wunderground v.1.15,2013-12-04 14:24:00,
2013-12-04 08:25:00,33.8,32.8,29.75,ENE,71,4.0,7.0,96,0.00,,,0.00,7,Wunderground v.1.15,2013-12-04 14:25:00,
2013-12-04 08:26:00,33.8,32.8,29.75,ENE,65,3.0,7.0,96,0.00,,,0.00,7,Wunderground v.1.15,2013-12-04 14:26:00,
2013-12-04 08:29:00,33.8,32.8,29.75,ESE,114,3.0,7.0,96,0.00,,,0.00,7,Wunderground v.1.15,2013-12-04 14:29:00,
2013-12-04 08:30:00,33.8,32.8,29.75,NNE,27,3.0,3.0,96,0.00,,,0.00,9,Wunderground v.1.15,2013-12-04 14:30:00,
2013-12-04 08:31:00,33.8,32.8,29.74,NNE,33,3.0,3.0,96,0.00,,,0.00,7,Wunderground v.1.15,2013-12-04 14:31:00,
2013-12-04 08:34:00,33.8,32.8,29.74,NE,46,3.0,4.0,96,0.00,,,0.00,9,Wunderground v.1.15,2013-12-04 14:34:00,
2013-12-04 08:36:00,33.8,32.8,29.74,NE,44,4.0,4.0,96,0.00,,,0.00,11,Wunderground v.1.15,2013-12-04 14:36:00,
2013-12-04 08:40:00,33.9,32.9,29.74,NNE,28,4.0,4.0,96,0.00,,,0.00,12,Wunderground v.1.15,2013-12-04 14:40:00,
2013-12-04 08:41:00,33.8,32.8,29.74,NNE,28,4.0,4.0,96,0.00,,,0.00,12,Wunderground v.1.15,2013-12-04 14:41:00,
2013-12-04 08:42:00,33.9,32.9,29.74,NNE,31,4.0,4.0,96,0.00,,,0.00,12,Wunderground v.1.15,2013-12-04 14:42:00,
2013-12-04 08:44:00,33.9,32.9,29.74,NNE,20,4.0,5.0,96,0.00,,,0.00,12,Wunderground v.1.15,2013-12-04 14:44:00,
2013-12-04 08:46:00,33.9,32.9,29.74,NE,51,4.0,5.0,96,0.00,,,0.00,14,Wunderground v.1.15,2013-12-04 14:46:00,
2013-12-04 08:48:00,33.9,32.9,29.74,ENE,57,4.0,5.0,96,0.00,,,0.00,12,Wunderground v.1.15,2013-12-04 14:48:00,
2013-12-04 08:49:00,33.9,32.9,29.74,ENE,57,3.0,5.0,96,0.00,,,0.00,12,Wunderground v.1.15,2013-12-04 14:49:00,
2013-12-04 08:50:00,33.9,32.9,29.74,ENE,65,3.0,3.0,96,0.00,,,0.00,12,Wunderground v.1.15,2013-12-04 14:50:00,
2013-12-04 08:54:00,33.9,32.9,29.74,East,99,2.0,6.0,96,0.00,,,0.00,14,Wunderground v.1.15,2013-12-04 14:54:00,
2013-12-04 08:55:00,33.9,32.9,29.74,ENE,59,2.0,6.0,96,0.00,,,0.00,16,Wunderground v.1.15,2013-12-04 14:55:00,
2013-12-04 08:57:00,33.9,32.9,29.74,ENE,57,2.0,6.0,96,0.00,,,0.00,16,Wunderground v.1.15,2013-12-04 14:57:00,
2013-12-04 09:01:00,33.9,32.9,29.74,NNE,24,2.0,2.0,96,0.00,,,0.00,16,Wunderground v.1.15,2013-12-04 15:01:00,
2013-12-04 09:02:00,33.9,32.9,29.74,NNE,28,2.0,2.0,96,0.00,,,0.00,14,Wunderground v.1.15,2013-12-04 15:02:00,
2013-12-04 09:04:00,34.0,33.0,29.74,NNE,28,2.0,2.0,96,0.00,,,0.00,14,Wunderground v.1.15,2013-12-04 15:04:00,
2013-12-04 09:07:00,33.9,32.9,29.73,East,82,2.0,4.0,96,0.00,,,0.00,16,Wunderground v.1.15,2013-12-04 15:07:00,
2013-12-04 09:09:00,33.9,32.9,29.73,East,81,2.0,4.0,96,0.00,,,0.00,14,Wunderground v.1.15,2013-12-04 15:09:00,
2013-12-04 09:10:00,33.9,32.9,29.73,ENE,67,2.0,3.0,96,0.00,,,0.00,12,Wunderground v.1.15,2013-12-04 15:10:00,
2013-12-04 09:13:00,33.9,32.9,29.73,NE,43,2.0,5.0,96,0.00,,,0.00,14,Wunderground v.1.15,2013-12-04 15:13:00,
2013-12-04 09:15:00,33.9,32.9,29.73,ENE,57,3.0,5.0,96,0.00,,,0.00,14,Wunderground v.1.15,2013-12-04 15:15:00,
2013-12-04 09:17:00,34.0,33.0,29.73,ENE,57,3.0,5.0,96,0.00,,,0.00,14,Wunderground v.1.15,2013-12-04 15:17:00,
2013-12-04 09:18:00,34.0,33.0,29.73,NE,53,3.0,5.0,96,0.00,,,0.00,14,Wunderground v.1.15,2013-12-04 15:18:00,
2013-12-04 09:20:00,34.0,33.0,29.73,ESE,108,3.0,3.0,96,0.00,,,0.00,12,Wunderground v.1.15,2013-12-04 15:20:00,
2013-12-04 09:22:00,34.0,33.0,29.73,NE,43,3.0,3.0,96,0.00,,,0.00,11,Wunderground v.1.15,2013-12-04 15:22:00,
2013-12-04 09:24:00,34.0,33.0,29.73,NE,43,2.0,3.0,96,0.00,,,0.00,12,Wunderground v.1.15,2013-12-04 15:24:00,
2013-12-04 09:26:00,34.0,33.0,29.74,NE,44,2.0,3.0,96,0.00,,,0.00,11,Wunderground v.1.15,2013-12-04 15:26:00,
2013-12-04 09:28:00,34.0,33.0,29.74,NE,43,1.0,3.0,96,0.00,,,0.00,12,Wunderground v.1.15,2013-12-04 15:28:00,
2013-12-04 09:31:00,34.1,33.1,29.74,East,91,1.0,1.0,96,0.00,,,0.00,12,Wunderground v.1.15,2013-12-04 15:31:00,
2013-12-04 09:33:00,34.1,33.1,29.74,ESE,107,1.0,2.0,96,0.00,,,0.00,12,Wunderground v.1.15,2013-12-04 15:33:00,
2013-12-04 09:35:00,34.1,33.1,29.74,ESE,107,1.0,2.0,96,0.00,,,0.00,12,Wunderground v.1.15,2013-12-04 15:35:00,
2013-12-04 09:37:00,34.1,33.1,29.74,ESE,107,1.0,2.0,96,0.00,,,0.00,14,Wunderground v.1.15,2013-12-04 15:37:00,
2013-12-04 09:38:00,34.1,33.1,29.74,ESE,107,1.0,2.0,96,0.00,,,0.00,14,Wunderground v.1.15,2013-12-04 15:38:00,
2013-12-04 09:39:00,34.1,33.1,29.74,ESE,107,1.0,2.0,96,0.00,,,0.00,16,Wunderground v.1.15,2013-12-04 15:39:00,
2013-12-04 09:40:00,34.1,33.1,29.74,ESE,107,1.0,1.0,96,0.00,,,0.00,16,Wunderground v.1.15,2013-12-04 15:40:00,
2013-12-04 09:41:00,34.1,33.1,29.74,ESE,107,1.0,1.0,96,0.00,,,0.00,18,Wunderground v.1.15,2013-12-04 15:41:00,
2013-12-04 09:44:00,34.2,33.2,29.74,ESE,107,0.0,2.0,96,0.00,,,0.00,21,Wunderground v.1.15,2013-12-04 15:44:00,
2013-12-04 09:45:00,34.2,33.2,29.74,ESE,107,0.0,2.0,96,0.00,,,0.00,23,Wunderground v.1.15,2013-12-04 15:45:00,
2013-12-04 09:46:00,34.2,33.2,29.74,ESE,107,1.0,2.0,96,0.00,,,0.00,23,Wunderground v.1.15,2013-12-04 15:46:00,
2013-12-04 09:50:00,34.3,33.3,29.74,ENE,61,1.0,2.0,96,0.00,,,0.00,19,Wunderground v.1.15,2013-12-04 15:50:00,
2013-12-04 09:54:00,34.3,33.3,29.74,NE,36,2.0,4.0,96,0.00,,,0.00,18,Wunderground v.1.15,2013-12-04 15:54:00,
2013-12-04 09:58:00,34.3,33.3,29.75,NE,36,1.0,4.0,96,0.00,,,0.00,14,Wunderground v.1.15,2013-12-04 15:58:00,
2013-12-04 09:59:00,34.3,33.3,29.75,NE,36,1.0,4.0,96,0.00,,,0.00,14,Wunderground v.1.15,2013-12-04 15:59:00,
2013-12-04 10:02:00,34.3,33.3,29.75,East,100,1.0,2.0,96,0.00,,,0.00,19,Wunderground v.1.15,2013-12-04 16:02:00,
2013-12-04 10:03:00,34.4,33.4,29.74,East,100,1.0,2.0,96,0.00,,,0.00,21,Wunderground v.1.15,2013-12-04 16:03:00,
2013-12-04 10:04:00,34.3,33.3,29.74,East,100,0.0,2.0,96,0.00,,,0.00,21,Wunderground v.1.15,2013-12-04 16:04:00,
2013-12-04 10:05:00,34.3,33.3,29.74,East,100,1.0,2.0,96,0.00,,,0.00,23,Wunderground v.1.15,2013-12-04 16:05:00,
2013-12-04 10:09:00,34.4,33.4,29.74,ENE,76,1.0,3.0,96,0.00,,,0.00,26,Wunderground v.1.15,2013-12-04 16:09:00,
2013-12-04 10:10:00,34.4,33.4,29.74,ENE,76,1.0,1.0,96,0.00,,,0.00,28,Wunderground v.1.15,2013-12-04 16:10:00,
2013-12-04 10:11:00,34.4,33.4,29.74,ENE,76,1.0,1.0,96,0.00,,,0.00,32,Wunderground v.1.15,2013-12-04 16:11:00,
2013-12-04 10:12:00,34.4,33.4,29.74,NNE,22,1.0,1.0,96,0.00,,,0.00,32,Wunderground v.1.15,2013-12-04 16:12:00,
2013-12-04 10:13:00,34.4,33.4,29.74,NE,46,1.0,4.0,96,0.00,,,0.00,30,Wunderground v.1.15,2013-12-04 16:13:00,
2013-12-04 10:14:00,34.5,33.5,29.74,NE,46,2.0,4.0,96,0.00,,,0.00,33,Wunderground v.1.15,2013-12-04 16:14:00,
2013-12-04 10:16:00,34.5,33.5,29.73,NE,55,2.0,4.0,96,0.00,,,0.00,28,Wunderground v.1.15,2013-12-04 16:16:00,
2013-12-04 10:21:00,34.5,33.5,29.73,NE,52,3.0,5.0,96,0.00,,,0.00,26,Wunderground v.1.15,2013-12-04 16:21:00,
2013-12-04 10:22:00,34.5,33.5,29.73,ENE,65,3.0,5.0,96,0.00,,,0.00,26,Wunderground v.1.15,2013-12-04 16:22:00,
2013-12-04 10:23:00,34.5,33.5,29.73,ENE,68,3.0,5.0,96,0.00,,,0.00,28,Wunderground v.1.15,2013-12-04 16:23:00,
2013-12-04 10:24:00,34.5,33.5,29.73,ENE,70,3.0,5.0,96,0.00,,,0.00,28,Wunderground v.1.15,2013-12-04 16:24:00,
2013-12-04 10:26:00,34.5,33.5,29.73,ENE,70,3.0,5.0,96,0.00,,,0.00,32,Wunderground v.1.15,2013-12-04 16:26:00,
2013-12-04 10:28:00,34.5,33.5,29.73,ENE,72,2.0,5.0,96,0.00,,,0.00,33,Wunderground v.1.15,2013-12-04 16:28:00,
2013-12-04 10:29:00,34.6,33.6,29.73,ENE,78,2.0,5.0,96,0.00,,,0.00,32,Wunderground v.1.15,2013-12-04 16:29:00,
2013-12-04 10:30:00,34.6,33.6,29.73,SE,133,2.0,5.0,96,0.00,,,0.00,33,Wunderground v.1.15,2013-12-04 16:30:00,
2013-12-04 10:32:00,34.6,33.6,29.73,East,92,2.0,6.0,96,0.00,,,0.00,33,Wunderground v.1.15,2013-12-04 16:32:00,
2013-12-04 10:33:00,34.6,33.6,29.73,ESE,102,2.0,6.0,96,0.00,,,0.00,33,Wunderground v.1.15,2013-12-04 16:33:00,
2013-12-04 10:34:00,34.6,33.6,29.73,SE,138,2.0,7.0,96,0.00,,,0.00,30,Wunderground v.1.15,2013-12-04 16:34:00,
2013-12-04 10:36:00,34.6,33.6,29.72,ESE,105,2.0,7.0,96,0.00,,,0.00,28,Wunderground v.1.15,2013-12-04 16:36:00,
2013-12-04 10:37:00,34.6,33.6,29.72,ESE,105,2.0,7.0,96,0.00,,,0.00,30,Wunderground v.1.15,2013-12-04 16:37:00,
2013-12-04 10:38:00,34.6,33.6,29.72,ESE,105,3.0,7.0,96,0.00,,,0.00,33,Wunderground v.1.15,2013-12-04 16:38:00,
2013-12-04 10:39:00,34.6,33.6,29.72,ENE,72,3.0,7.0,96,0.00,,,0.00,33,Wunderground v.1.15,2013-12-04 16:39:00,
2013-12-04 10:40:00,34.7,33.7,29.72,ENE,69,3.0,3.0,96,0.00,,,0.00,35,Wunderground v.1.15,2013-12-04 16:40:00,
2013-12-04 10:43:00,34.7,33.7,29.71,ESE,119,3.0,4.0,96,0.00,,,0.00,39,Wunderground v.1.15,2013-12-04 16:43:00,
2013-12-04 10:44:00,34.7,33.7,29.71,ESE,119,3.0,4.0,96,0.00,,,0.00,39,Wunderground v.1.15,2013-12-04 16:44:00,
2013-12-04 10:45:00,34.7,33.7,29.71,ENE,67,3.0,4.0,96,0.00,,,0.00,39,Wunderground v.1.15,2013-12-04 16:45:00,
2013-12-04 10:47:00,34.7,33.7,29.71,ENE,67,3.0,4.0,96,0.00,,,0.00,35,Wunderground v.1.15,2013-12-04 16:47:00,
2013-12-04 10:48:00,34.7,33.7,29.70,ENE,78,3.0,4.0,96,0.00,,,0.00,35,Wunderground v.1.15,2013-12-04 16:48:00,
2013-12-04 10:49:00,34.8,33.8,29.70,East,99,3.0,5.0,96,0.00,,,0.00,35,Wunderground v.1.15,2013-12-04 16:49:00,
2013-12-04 10:52:00,34.8,33.8,29.70,East,92,3.0,5.0,96,0.00,,,0.00,37,Wunderground v.1.15,2013-12-04 16:52:00,
2013-12-04 10:53:00,34.8,33.8,29.69,East,92,3.0,5.0,96,0.00,,,0.00,39,Wunderground v.1.15,2013-12-04 16:53:00,
2013-12-04 10:54:00,34.8,33.8,29.69,East,94,3.0,5.0,96,0.00,,,0.00,35,Wunderground v.1.15,2013-12-04 16:54:00,
2013-12-04 10:56:00,34.8,33.8,29.69,ENE,64,3.0,5.0,96,0.00,,,0.00,37,Wunderground v.1.15,2013-12-04 16:56:00,
2013-12-04 10:57:00,34.8,33.8,29.69,East,83,3.0,5.0,96,0.00,,,0.00,35,Wunderground v.1.15,2013-12-04 16:57:00,
2013-12-04 10:58:00,34.8,33.8,29.69,ENE,61,3.0,5.0,96,0.00,,,0.00,35,Wunderground v.1.15,2013-12-04 16:58:00,
2013-12-04 11:01:00,34.9,33.9,29.68,ENE,66,3.0,5.0,96,0.00,,,0.00,35,Wunderground v.1.15,2013-12-04 17:01:00,
2013-12-04 11:02:00,34.9,33.9,29.68,ENE,66,3.0,5.0,96,0.00,,,0.00,33,Wunderground v.1.15,2013-12-04 17:02:00,
2013-12-04 11:04:00,34.9,33.9,29.68,ENE,66,2.0,5.0,96,0.00,,,0.00,33,Wunderground v.1.15,2013-12-04 17:04:00,
2013-12-04 11:06:00,35.0,34.0,29.67,SE,126,2.0,5.0,96,0.00,,,0.00,33,Wunderground v.1.15,2013-12-04 17:06:00,
2013-12-04 11:07:00,35.0,34.0,29.67,SE,126,2.0,5.0,96,0.00,,,0.00,30,Wunderground v.1.15,2013-12-04 17:07:00,
2013-12-04 11:08:00,35.0,34.0,29.68,SE,126,2.0,5.0,96,0.00,,,0.00,26,Wunderground v.1.15,2013-12-04 17:08:00,
2013-12-04 11:12:00,35.1,34.1,29.67,East,92,1.0,2.0,96,0.00,,,0.00,33,Wunderground v.1.15,2013-12-04 17:12:00,
2013-12-04 11:14:00,35.1,34.1,29.67,East,93,2.0,2.0,96,0.00,,,0.00,35,Wunderground v.1.15,2013-12-04 17:14:00,
2013-12-04 11:15:00,35.1,34.1,29.67,ESE,107,2.0,4.0,96,0.00,,,0.00,28,Wunderground v.1.15,2013-12-04 17:15:00,
2013-12-04 11:16:00,35.2,34.2,29.67,ESE,106,2.0,4.0,96,0.00,,,0.00,28,Wunderground v.1.15,2013-12-04 17:16:00,
2013-12-04 11:17:00,35.2,34.2,29.67,ENE,58,2.0,4.0,96,0.00,,,0.00,28,Wunderground v.1.15,2013-12-04 17:17:00,
2013-12-04 11:19:00,35.2,34.2,29.66,East,83,2.0,6.0,96,0.00,,,0.00,30,Wunderground v.1.15,2013-12-04 17:19:00,
2013-12-04 11:20:00,35.3,34.3,29.66,NNE,14,2.0,6.0,96,0.00,,,0.00,32,Wunderground v.1.15,2013-12-04 17:20:00,
2013-12-04 11:24:00,35.3,34.3,29.66,SE,141,2.0,6.0,96,0.00,,,0.00,28,Wunderground v.1.15,2013-12-04 17:24:00,
2013-12-04 11:25:00,35.3,34.3,29.65,SE,141,2.0,6.0,96,0.00,,,0.00,28,Wunderground v.1.15,2013-12-04 17:25:00,
2013-12-04 11:26:00,35.3,34.3,29.65,East,94,2.0,6.0,96,0.00,,,0.00,28,Wunderground v.1.15,2013-12-04 17:26:00,
2013-12-04 11:27:00,35.3,34.3,29.65,East,96,2.0,6.0,96,0.00,,,0.00,30,Wunderground v.1.15,2013-12-04 17:27:00,
2013-12-04 11:28:00,35.4,34.4,29.65,NNE,24,2.0,6.0,96,0.00,,,0.00,28,Wunderground v.1.15,2013-12-04 17:28:00,
2013-12-04 11:29:00,35.4,34.4,29.65,East,82,2.0,6.0,96,0.00,,,0.00,28,Wunderground v.1.15,2013-12-04 17:29:00,
2013-12-04 11:31:00,35.5,34.5,29.65,East,98,2.0,7.0,96,0.00,,,0.00,28,Wunderground v.1.15,2013-12-04 17:31:00,
2013-12-04 11:33:00,35.5,34.5,29.65,East,96,2.0,7.0,96,0.00,,,0.00,28,Wunderground v.1.15,2013-12-04 17:33:00,
2013-12-04 11:35:00,35.5,34.5,29.65,East,96,2.0,7.0,96,0.00,,,0.00,30,Wunderground v.1.15,2013-12-04 17:35:00,
2013-12-04 11:36:00,35.5,34.5,29.65,East,96,2.0,7.0,96,0.00,,,0.00,30,Wunderground v.1.15,2013-12-04 17:36:00,
2013-12-04 11:37:00,35.5,34.5,29.64,East,88,2.0,7.0,96,0.00,,,0.00,32,Wunderground v.1.15,2013-12-04 17:37:00,
2013-12-04 11:39:00,35.6,34.6,29.64,East,94,2.0,7.0,96,0.00,,,0.00,33,Wunderground v.1.15,2013-12-04 17:39:00,
2013-12-04 11:41:00,35.6,34.6,29.64,East,93,2.0,4.0,96,0.00,,,0.00,33,Wunderground v.1.15,2013-12-04 17:41:00,
2013-12-04 11:42:00,35.6,34.6,29.64,NNE,32,2.0,4.0,96,0.00,,,0.00,30,Wunderground v.1.15,2013-12-04 17:42:00,
2013-12-04 11:44:00,35.7,34.7,29.64,NE,53,2.0,4.0,96,0.00,,,0.00,30,Wunderground v.1.15,2013-12-04 17:44:00,
2013-12-04 11:45:00,35.7,34.7,29.64,NE,53,2.0,4.0,96,0.00,,,0.00,30,Wunderground v.1.15,2013-12-04 17:45:00,
2013-12-04 11:47:00,35.7,34.7,29.64,NE,53,2.0,4.0,96,0.00,,,0.00,32,Wunderground v.1.15,2013-12-04 17:47:00,
2013-12-04 11:49:00,35.7,34.7,29.64,SE,139,2.0,6.0,96,0.00,,,0.00,33,Wunderground v.1.15,2013-12-04 17:49:00,
2013-12-04 11:50:00,35.7,34.7,29.64,ESE,122,2.0,2.0,96,0.00,,,0.00,33,Wunderground v.1.15,2013-12-04 17:50:00,
2013-12-04 11:51:00,35.7,34.7,29.64,ESE,117,2.0,2.0,96,0.00,,,0.00,32,Wunderground v.1.15,2013-12-04 17:51:00,
2013-12-04 11:54:00,35.8,34.8,29.64,ESE,108,2.0,4.0,96,0.00,,,0.00,28,Wunderground v.1.15,2013-12-04 17:54:00,
2013-12-04 11:55:00,35.8,34.8,29.64,ESE,108,2.0,4.0,96,0.00,,,0.00,28,Wunderground v.1.15,2013-12-04 17:55:00,
2013-12-04 11:56:00,35.8,34.8,29.63,ESE,108,1.0,4.0,96,0.00,,,0.00,28,Wunderground v.1.15,2013-12-04 17:56:00,
2013-12-04 12:00:00,35.9,34.9,29.63,ESE,104,1.0,6.0,96,0.00,,,0.00,32,Wunderground v.1.15,2013-12-04 18:00:00,
2013-12-04 12:01:00,35.9,34.9,29.63,SE,128,1.0,6.0,96,0.00,,,0.00,35,Wunderground v.1.15,2013-12-04 18:01:00,
2013-12-04 12:04:00,35.9,34.9,29.62,ESE,118,2.0,6.0,96,0.00,,,0.00,33,Wunderground v.1.15,2013-12-04 18:04:00,
2013-12-04 12:05:00,35.9,34.9,29.62,ESE,103,2.0,6.0,96,0.00,,,0.00,33,Wunderground v.1.15,2013-12-04 18:05:00,
2013-12-04 12:07:00,36.0,35.0,29.62,ESE,103,2.0,6.0,96,0.00,,,0.00,32,Wunderground v.1.15,2013-12-04 18:07:00,
2013-12-04 12:10:00,36.0,35.0,29.62,ESE,103,1.0,1.0,96,0.00,,,0.00,30,Wunderground v.1.15,2013-12-04 18:10:00,
2013-12-04 12:11:00,36.0,35.0,29.62,East,101,1.0,1.0,96,0.00,,,0.00,32,Wunderground v.1.15,2013-12-04 18:11:00,
2013-12-04 12:14:00,36.0,35.0,29.61,East,101,1.0,1.0,96,0.00,,,0.00,42,Wunderground v.1.15,2013-12-04 18:14:00,
2013-12-04 12:15:00,36.0,35.0,29.61,NE,38,1.0,5.0,96,0.00,,,0.00,46,Wunderground v.1.15,2013-12-04 18:15:00,
2013-12-04 12:17:00,36.0,35.0,29.60,NE,43,1.0,5.0,96,0.00,,,0.00,54,Wunderground v.1.15,2013-12-04 18:17:00,
2013-12-04 12:19:00,36.1,35.1,29.61,East,84,2.0,5.0,96,0.00,,,0.00,49,Wunderground v.1.15,2013-12-04 18:19:00,
2013-12-04 12:20:00,36.1,35.1,29.60,East,83,2.0,2.0,96,0.00,,,0.00,54,Wunderground v.1.15,2013-12-04 18:20:00,
2013-12-04 12:21:00,36.1,35.1,29.60,ENE,71,2.0,3.0,96,0.00,,,0.00,58,Wunderground v.1.15,2013-12-04 18:21:00,
2013-12-04 12:25:00,36.1,35.1,29.61,ESE,103,2.0,3.0,96,0.00,,,0.00,58,Wunderground v.1.15,2013-12-04 18:25:00,
2013-12-04 12:26:00,36.1,35.1,29.61,East,95,1.0,4.0,96,0.00,,,0.00,53,Wunderground v.1.15,2013-12-04 18:26:00,
2013-12-04 12:28:00,36.2,35.2,29.61,East,101,2.0,4.0,96,0.00,,,0.00,58,Wunderground v.1.15,2013-12-04 18:28:00,
2013-12-04 12:30:00,36.2,35.2,29.60,ENE,75,2.0,2.0,96,0.00,,,0.00,63,Wunderground v.1.15,2013-12-04 18:30:00,
2013-12-04 12:31:00,36.2,35.2,29.60,ENE,75,2.0,2.0,96,0.00,,,0.00,69,Wunderground v.1.15,2013-12-04 18:31:00,
2013-12-04 12:33:00,36.3,35.3,29.60,ENE,76,1.0,2.0,96,0.00,,,0.00,63,Wunderground v.1.15,2013-12-04 18:33:00,
2013-12-04 12:34:00,36.3,35.3,29.60,ENE,67,1.0,4.0,96,0.00,,,0.00,62,Wunderground v.1.15,2013-12-04 18:34:00,
2013-12-04 12:37:00,36.4,35.4,29.59,ENE,74,2.0,4.0,96,0.00,,,0.00,65,Wunderground v.1.15,2013-12-04 18:37:00,
2013-12-04 12:38:00,36.5,35.5,29.59,ENE,61,2.0,4.0,96,0.00,,,0.00,67,Wunderground v.1.15,2013-12-04 18:38:00,
2013-12-04 12:42:00,36.6,35.6,29.59,East,100,2.0,4.0,96,0.00,,,0.00,65,Wunderground v.1.15,2013-12-04 18:42:00,
2013-12-04 12:43:00,36.6,35.6,29.59,ESE,108,2.0,4.0,96,0.00,,,0.00,62,Wunderground v.1.15,2013-12-04 18:43:00,
2013-12-04 12:44:00,36.6,35.6,29.59,NE,55,3.0,4.0,96,0.00,,,0.00,60,Wunderground v.1.15,2013-12-04 18:44:00,
2013-12-04 12:45:00,36.6,35.6,29.58,East,88,3.0,4.0,96,0.00,,,0.00,62,Wunderground v.1.15,2013-12-04 18:45:00,
2013-12-04 12:48:00,36.7,35.7,29.58,ESE,117,3.0,4.0,96,0.00,,,0.00,54,Wunderground v.1.15,2013-12-04 18:48:00,
2013-12-04 12:50:00,36.8,35.8,29.58,ESE,113,3.0,4.0,96,0.00,,,0.00,53,Wunderground v.1.15,2013-12-04 18:50:00,
2013-12-04 12:51:00,36.8,35.8,29.58,ESE,122,3.0,5.0,96,0.00,,,0.00,53,Wunderground v.1.15,2013-12-04 18:51:00,
2013-12-04 12:53:00,36.8,35.8,29.58,SSE,149,3.0,5.0,96,0.00,,,0.00,51,Wunderground v.1.15,2013-12-04 18:53:00,
2013-12-04 12:58:00,37.0,36.2,29.58,SE,141,2.0,5.0,97,0.00,,,0.00,56,Wunderground v.1.15,2013-12-04 18:58:00,
2013-12-04 12:59:00,37.0,36.2,29.58,SE,141,2.0,5.0,97,0.00,,,0.00,51,Wunderground v.1.15,2013-12-04 18:59:00,
2013-12-04 13:00:00,37.0,36.2,29.57,SE,141,2.0,2.0,97,0.00,,,0.00,51,Wunderground v.1.15,2013-12-04 19:00:00,
2013-12-04 13:02:00,37.0,36.2,29.58,SE,141,1.0,2.0,97,0.00,,,0.00,49,Wunderground v.1.15,2013-12-04 19:02:00,
2013-12-04 13:04:00,37.1,36.3,29.58,East,82,1.0,2.0,97,0.00,,,0.00,49,Wunderground v.1.15,2013-12-04 19:04:00,
2013-12-04 13:05:00,37.2,36.4,29.57,East,80,1.0,2.0,97,0.00,,,0.00,51,Wunderground v.1.15,2013-12-04 19:05:00,
2013-12-04 13:06:00,37.2,36.4,29.57,East,86,1.0,2.0,97,0.00,,,0.00,54,Wunderground v.1.15,2013-12-04 19:06:00,
2013-12-04 13:07:00,37.2,36.4,29.57,East,84,1.0,2.0,97,0.00,,,0.00,49,Wunderground v.1.15,2013-12-04 19:07:00,
2013-12-04 13:09:00,37.3,36.3,29.57,East,84,1.0,2.0,96,0.00,,,0.00,47,Wunderground v.1.15,2013-12-04 19:09:00,
2013-12-04 13:11:00,37.3,36.3,29.57,East,83,2.0,3.0,96,0.00,,,0.00,39,Wunderground v.1.15,2013-12-04 19:11:00,
2013-12-04 13:12:00,37.3,36.3,29.57,East,83,2.0,3.0,96,0.00,,,0.00,39,Wunderground v.1.15,2013-12-04 19:12:00,
2013-12-04 13:13:00,37.4,36.4,29.56,East,83,2.0,3.0,96,0.00,,,0.00,39,Wunderground v.1.15,2013-12-04 19:13:00,
2013-12-04 13:15:00,37.4,36.4,29.56,East,83,1.0,3.0,96,0.00,,,0.00,35,Wunderground v.1.15,2013-12-04 19:15:00,
2013-12-04 13:18:00,37.5,36.5,29.56,East,83,1.0,3.0,96,0.00,,,0.00,30,Wunderground v.1.15,2013-12-04 19:18:00,
2013-12-04 13:19:00,37.5,36.5,29.56,East,83,1.0,3.0,96,0.00,,,0.00,30,Wunderground v.1.15,2013-12-04 19:19:00,
2013-12-04 13:24:00,37.6,36.8,29.56,East,83,1.0,1.0,97,0.00,,,0.00,33,Wunderground v.1.15,2013-12-04 19:24:00,
2013-12-04 13:26:00,37.6,36.8,29.56,East,83,1.0,1.0,97,0.00,,,0.00,32,Wunderground v.1.15,2013-12-04 19:26:00,
2013-12-04 13:28:00,37.7,36.9,29.55,East,83,0.0,1.0,97,0.00,,,0.00,28,Wunderground v.1.15,2013-12-04 19:28:00,
2013-12-04 13:29:00,37.7,36.9,29.56,East,83,0.0,1.0,97,0.00,,,0.00,28,Wunderground v.1.15,2013-12-04 19:29:00,
2013-12-04 13:30:00,37.7,36.9,29.56,East,83,0.0,0.0,97,0.00,,,0.00,28,Wunderground v.1.15,2013-12-04 19:30:00,
2013-12-04 13:31:00,37.7,36.9,29.56,East,83,0.0,0.0,97,0.00,,,0.00,28,Wunderground v.1.15,2013-12-04 19:31:00,
2013-12-04 13:36:00,37.8,37.0,29.55,East,83,0.0,1.0,97,0.00,,,0.00,28,Wunderground v.1.15,2013-12-04 19:36:00,
2013-12-04 13:37:00,37.8,37.0,29.55,East,83,0.0,1.0,97,0.00,,,0.00,28,Wunderground v.1.15,2013-12-04 19:37:00,
2013-12-04 13:38:00,37.8,37.0,29.54,East,83,0.0,1.0,97,0.00,,,0.00,28,Wunderground v.1.15,2013-12-04 19:38:00,
2013-12-04 13:39:00,37.8,37.0,29.54,East,83,0.0,1.0,97,0.00,,,0.00,28,Wunderground v.1.15,2013-12-04 19:39:00,
2013-12-04 13:42:00,37.9,37.1,29.54,East,83,0.0,0.0,97,0.00,,,0.00,26,Wunderground v.1.15,2013-12-04 19:42:00,
2013-12-04 13:43:00,37.9,37.1,29.54,East,83,0.0,0.0,97,0.00,,,0.00,26,Wunderground v.1.15,2013-12-04 19:43:00,
2013-12-04 13:48:00,37.9,36.9,29.55,East,83,0.0,0.0,96,0.00,,,0.00,25,Wunderground v.1.15,2013-12-04 19:48:00,
2013-12-04 13:49:00,37.9,36.9,29.55,East,83,0.0,0.0,96,0.00,,,0.00,25,Wunderground v.1.15,2013-12-04 19:49:00,
2013-12-04 13:50:00,37.9,36.9,29.55,East,83,0.0,0.0,96,0.00,,,0.00,25,Wunderground v.1.15,2013-12-04 19:50:00,
2013-12-04 13:52:00,38.0,37.0,29.54,East,83,0.0,0.0,96,0.00,,,0.00,23,Wunderground v.1.15,2013-12-04 19:52:00,
2013-12-04 13:54:00,38.0,37.0,29.54,East,83,0.0,0.0,96,0.00,,,0.00,21,Wunderground v.1.15,2013-12-04 19:54:00,
2013-12-04 13:55:00,38.0,37.0,29.54,East,83,0.0,0.0,96,0.00,,,0.00,21,Wunderground v.1.15,2013-12-04 19:55:00,
2013-12-04 13:56:00,38.0,37.0,29.54,East,83,0.0,0.0,96,0.00,,,0.00,23,Wunderground v.1.15,2013-12-04 19:56:00,
2013-12-04 13:57:00,38.0,37.0,29.54,East,83,0.0,0.0,96,0.00,,,0.00,21,Wunderground v.1.15,2013-12-04 19:57:00,
2013-12-04 14:00:00,38.1,37.1,29.55,East,84,0.0,2.0,96,0.00,,,0.00,21,Wunderground v.1.15,2013-12-04 20:00:00,
2013-12-04 14:01:00,38.2,37.2,29.54,East,83,0.0,2.0,96,0.00,,,0.00,23,Wunderground v.1.15,2013-12-04 20:01:00,
2013-12-04 14:04:00,38.3,37.5,29.54,SE,124,1.0,2.0,97,0.00,,,0.00,23,Wunderground v.1.15,2013-12-04 20:04:00,
2013-12-04 14:05:00,38.3,37.5,29.54,SE,124,1.0,2.0,97,0.00,,,0.00,23,Wunderground v.1.15,2013-12-04 20:05:00,
2013-12-04 14:06:00,38.3,37.5,29.54,SE,124,1.0,2.0,97,0.00,,,0.00,23,Wunderground v.1.15,2013-12-04 20:06:00,
2013-12-04 14:07:00,38.3,37.5,29.54,SE,128,1.0,4.0,97,0.00,,,0.00,23,Wunderground v.1.15,2013-12-04 20:07:00,
2013-12-04 14:09:00,38.4,37.6,29.54,ESE,107,1.0,4.0,97,0.00,,,0.00,21,Wunderground v.1.15,2013-12-04 20:09:00,
2013-12-04 14:11:00,38.4,37.6,29.54,ESE,107,1.0,2.0,97,0.00,,,0.00,19,Wunderground v.1.15,2013-12-04 20:11:00,
2013-12-04 14:12:00,38.5,37.7,29.53,ESE,107,1.0,2.0,97,0.00,,,0.00,18,Wunderground v.1.15,2013-12-04 20:12:00,
2013-12-04 14:13:00,38.5,37.7,29.53,ESE,107,1.0,2.0,97,0.00,,,0.00,18,Wunderground v.1.15,2013-12-04 20:13:00,
2013-12-04 14:15:00,38.5,37.5,29.53,ESE,107,1.0,2.0,96,0.00,,,0.00,19,Wunderground v.1.15,2013-12-04 20:15:00,
2013-12-04 14:16:00,38.5,37.5,29.53,ESE,107,1.0,2.0,96,0.00,,,0.00,18,Wunderground v.1.15,2013-12-04 20:16:00,
2013-12-04 14:20:00,38.6,37.8,29.53,ESE,103,1.0,1.0,97,0.00,,,0.00,16,Wunderground v.1.15,2013-12-04 20:20:00,
2013-12-04 14:21:00,38.7,37.7,29.53,ESE,103,1.0,1.0,96,0.00,,,0.00,16,Wunderground v.1.15,2013-12-04 20:21:00,
2013-12-04 14:22:00,38.7,37.9,29.53,ESE,103,1.0,1.0,97,0.00,,,0.00,14,Wunderground v.1.15,2013-12-04 20:22:00,
2013-12-04 14:23:00,38.7,37.7,29.53,ESE,103,1.0,1.0,96,0.00,,,0.00,16,Wunderground v.1.15,2013-12-04 20:23:00,
2013-12-04 14:24:00,38.7,37.7,29.53,ESE,103,1.0,1.0,96,0.00,,,0.00,18,Wunderground v.1.15,2013-12-04 20:24:00,
2013-12-04 14:25:00,38.7,37.7,29.53,ESE,103,1.0,1.0,96,0.00,,,0.00,18,Wunderground v.1.15,2013-12-04 20:25:00,
2013-12-04 14:28:00,38.7,37.7,29.52,ESE,103,0.0,2.0,96,0.00,,,0.00,16,Wunderground v.1.15,2013-12-04 20:28:00,
2013-12-04 14:29:00,38.8,37.8,29.52,ESE,103,0.0,2.0,96,0.00,,,0.00,14,Wunderground v.1.15,2013-12-04 20:29:00,
2013-12-04 14:30:00,38.8,37.8,29.52,ESE,103,0.0,1.0,96,0.00,,,0.00,14,Wunderground v.1.15,2013-12-04 20:30:00,
2013-12-04 14:31:00,38.8,37.8,29.52,ESE,103,0.0,1.0,96,0.00,,,0.00,12,Wunderground v.1.15,2013-12-04 20:31:00,
2013-12-04 14:33:00,38.9,38.1,29.52,ESE,107,1.0,4.0,97,0.00,,,0.00,18,Wunderground v.1.15,2013-12-04 20:33:00,
2013-12-04 14:36:00,38.9,38.1,29.52,ESE,107,1.0,4.0,97,0.00,,,0.00,18,Wunderground v.1.15,2013-12-04 20:36:00,
2013-12-04 14:38:00,38.9,38.1,29.52,ESE,106,1.0,4.0,97,0.00,,,0.00,16,Wunderground v.1.15,2013-12-04 20:38:00,
2013-12-04 14:39:00,39.0,38.2,29.52,ESE,106,2.0,4.0,97,0.00,,,0.00,16,Wunderground v.1.15,2013-12-04 20:39:00,
2013-12-04 14:40:00,39.0,38.2,29.52,ESE,106,2.0,2.0,97,0.00,,,0.00,16,Wunderground v.1.15,2013-12-04 20:40:00,
2013-12-04 14:41:00,39.0,38.2,29.52,ESE,106,2.0,4.0,97,0.00,,,0.00,14,Wunderground v.1.15,2013-12-04 20:41:00,
2013-12-04 14:44:00,39.1,38.3,29.52,ESE,106,1.0,4.0,97,0.00,,,0.00,12,Wunderground v.1.15,2013-12-04 20:44:00,
2013-12-04 14:45:00,39.1,38.3,29.52,ESE,106,1.0,4.0,97,0.00,,,0.00,16,Wunderground v.1.15,2013-12-04 20:45:00,
2013-12-04 14:47:00,39.1,38.3,29.51,ESE,106,1.0,4.0,97,0.00,,,0.00,16,Wunderground v.1.15,2013-12-04 20:47:00,
2013-12-04 14:48:00,39.1,38.3,29.51,ESE,106,1.0,4.0,97,0.00,,,0.00,16,Wunderground v.1.15,2013-12-04 20:48:00,
2013-12-04 14:49:00,39.1,38.3,29.51,ESE,106,1.0,4.0,97,0.00,,,0.00,14,Wunderground v.1.15,2013-12-04 20:49:00,
2013-12-04 14:50:00,39.1,38.3,29.51,ESE,106,1.0,1.0,97,0.00,,,0.00,12,Wunderground v.1.15,2013-12-04 20:50:00,
2013-12-04 14:53:00,39.1,38.3,29.52,ESE,106,1.0,1.0,97,0.00,,,0.00,12,Wunderground v.1.15,2013-12-04 20:53:00,
2013-12-04 14:55:00,39.1,38.3,29.52,ESE,106,1.0,1.0,97,0.00,,,0.00,12,Wunderground v.1.15,2013-12-04 20:55:00,
2013-12-04 14:56:00,39.1,38.3,29.51,ESE,107,1.0,2.0,97,0.00,,,0.00,12,Wunderground v.1.15,2013-12-04 20:56:00,
2013-12-04 15:00:00,39.1,38.3,29.51,ESE,107,1.0,1.0,97,0.00,,,0.00,11,Wunderground v.1.15,2013-12-04 21:00:00,
2013-12-04 15:02:00,39.2,38.4,29.51,South,175,1.0,1.0,97,0.00,,,0.00,11,Wunderground v.1.15,2013-12-04 21:02:00,
2013-12-04 15:04:00,39.2,38.2,29.52,SE,139,1.0,5.0,96,0.00,,,0.00,9,Wunderground v.1.15,2013-12-04 21:04:00,
2013-12-04 15:05:00,39.2,38.4,29.52,ESE,113,2.0,5.0,97,0.00,,,0.00,9,Wunderground v.1.15,2013-12-04 21:05:00,
2013-12-04 15:06:00,39.2,38.4,29.52,ESE,113,2.0,5.0,97,0.00,,,0.00,9,Wunderground v.1.15,2013-12-04 21:06:00,
2013-12-04 15:09:00,39.2,38.4,29.52,ESE,114,2.0,5.0,97,0.00,,,0.00,7,Wunderground v.1.15,2013-12-04 21:09:00,
2013-12-04 15:10:00,39.2,38.4,29.52,ESE,114,2.0,2.0,97,0.00,,,0.00,5,Wunderground v.1.15,2013-12-04 21:10:00,
2013-12-04 15:11:00,39.2,38.4,29.52,ESE,121,1.0,2.0,97,0.00,,,0.00,5,Wunderground v.1.15,2013-12-04 21:11:00,
2013-12-04 15:12:00,39.2,38.4,29.52,SE,140,2.0,2.0,97,0.00,,,0.00,0,Wunderground v.1.15,2013-12-04 21:12:00,
2013-12-04 15:13:00,39.3,38.5,29.52,SE,135,1.0,5.0,97,0.00,,,0.00,0,Wunderground v.1.15,2013-12-04 21:13:00,
2013-12-04 15:17:00,39.3,38.5,29.52,SE,134,1.0,5.0,97,0.00,,,0.00,5,Wunderground v.1.15,2013-12-04 21:17:00,
2013-12-04 15:18:00,39.3,38.5,29.52,SE,134,1.0,5.0,97,0.00,,,0.01,5,Wunderground v.1.15,2013-12-04 21:18:00,
2013-12-04 15:19:00,39.3,38.5,29.52,SE,134,1.0,5.0,97,0.00,,,0.01,7,Wunderground v.1.15,2013-12-04 21:19:00,
2013-12-04 15:24:00,39.3,38.5,29.52,SE,134,1.0,1.0,97,0.00,,,0.01,5,Wunderground v.1.15,2013-12-04 21:24:00,
2013-12-04 15:25:00,39.3,38.5,29.52,SE,134,1.0,1.0,97,0.00,,,0.01,7,Wunderground v.1.15,2013-12-04 21:25:00,
2013-12-04 15:26:00,39.3,38.5,29.51,SE,134,0.0,1.0,97,0.00,,,0.01,7,Wunderground v.1.15,2013-12-04 21:26:00,
2013-12-04 15:29:00,39.4,38.6,29.51,SE,134,1.0,1.0,97,0.00,,,0.01,7,Wunderground v.1.15,2013-12-04 21:29:00,
2013-12-04 15:30:00,39.4,38.6,29.51,SE,134,1.0,1.0,97,0.00,,,0.01,5,Wunderground v.1.15,2013-12-04 21:30:00,
2013-12-04 15:32:00,39.4,38.6,29.51,SE,134,0.0,2.0,97,0.00,,,0.01,9,Wunderground v.1.15,2013-12-04 21:32:00,
2013-12-04 15:33:00,39.4,38.6,29.51,SE,134,0.0,2.0,97,0.00,,,0.01,11,Wunderground v.1.15,2013-12-04 21:33:00,
2013-12-04 15:35:00,39.4,38.6,29.51,ENE,74,1.0,4.0,97,0.00,,,0.01,14,Wunderground v.1.15,2013-12-04 21:35:00,
2013-12-04 15:36:00,39.5,38.7,29.50,ENE,68,1.0,4.0,97,0.00,,,0.01,14,Wunderground v.1.15,2013-12-04 21:36:00,
2013-12-04 15:40:00,39.5,38.7,29.50,NE,46,2.0,2.0,97,0.00,,,0.01,12,Wunderground v.1.15,2013-12-04 21:40:00,
2013-12-04 15:41:00,39.4,38.6,29.50,NE,55,3.0,3.0,97,0.00,,,0.01,11,Wunderground v.1.15,2013-12-04 21:41:00,
2013-12-04 15:42:00,39.4,38.6,29.50,NE,55,3.0,3.0,97,0.00,,,0.01,7,Wunderground v.1.15,2013-12-04 21:42:00,
2013-12-04 15:43:00,39.4,38.6,29.50,ENE,61,3.0,3.0,97,0.00,,,0.01,7,Wunderground v.1.15,2013-12-04 21:43:00,
2013-12-04 15:45:00,39.4,38.6,29.50,East,101,3.0,3.0,97,0.00,,,0.01,7,Wunderground v.1.15,2013-12-04 21:45:00,
2013-12-04 15:47:00,39.4,38.6,29.50,East,101,2.0,3.0,97,0.00,,,0.01,7,Wunderground v.1.15,2013-12-04 21:47:00,
2013-12-04 15:48:00,39.4,38.6,29.50,East,96,2.0,3.0,97,0.00,,,0.01,7,Wunderground v.1.15,2013-12-04 21:48:00,
2013-12-04 15:49:00,39.4,38.6,29.50,East,96,2.0,3.0,97,0.00,,,0.01,5,Wunderground v.1.15,2013-12-04 21:49:00,
2013-12-04 15:52:00,39.5,38.7,29.50,East,96,1.0,1.0,97,0.00,,,0.01,5,Wunderground v.1.15,2013-12-04 21:52:00,
2013-12-04 15:54:00,39.5,38.7,29.50,East,96,1.0,1.0,97,0.00,,,0.01,0,Wunderground v.1.15,2013-12-04 21:54:00,
2013-12-04 15:55:00,39.5,38.7,29.50,East,96,1.0,1.0,97,0.00,,,0.01,0,Wunderground v.1.15,2013-12-04 21:55:00,
2013-12-04 15:57:00,39.5,38.7,29.50,East,96,1.0,1.0,97,0.00,,,0.01,0,Wunderground v.1.15,2013-12-04 21:57:00,
2013-12-04 15:59:00,39.5,38.7,29.50,East,96,0.0,1.0,97,0.00,,,0.01,0,Wunderground v.1.15,2013-12-04 21:59:00,
2013-12-04 16:00:00,39.5,38.7,29.50,East,96,0.0,0.0,97,0.00,,,0.01,0,Wunderground v.1.15,2013-12-04 22:00:00,
2013-12-04 16:04:00,39.5,38.7,29.50,East,96,0.0,1.0,97,0.00,,,0.01,0,Wunderground v.1.15,2013-12-04 22:04:00,
2013-12-04 16:05:00,39.5,38.7,29.50,East,96,0.0,2.0,97,0.00,,,0.01,0,Wunderground v.1.15,2013-12-04 22:05:00,
2013-12-04 16:06:00,39.5,38.7,29.50,East,96,0.0,2.0,97,0.00,,,0.01,0,Wunderground v.1.15,2013-12-04 22:06:00,
2013-12-04 16:09:00,39.5,38.7,29.50,East,96,1.0,2.0,97,0.00,,,0.01,0,Wunderground v.1.15,2013-12-04 22:09:00,
2013-12-04 16:10:00,39.5,38.7,29.50,East,96,1.0,1.0,97,0.00,,,0.01,0,Wunderground v.1.15,2013-12-04 22:10:00,
2013-12-04 16:14:00,39.5,38.7,29.50,SSE,153,1.0,5.0,97,0.00,,,0.01,0,Wunderground v.1.15,2013-12-04 22:14:00,
2013-12-04 16:16:00,39.5,38.7,29.50,South,169,1.0,5.0,97,0.00,,,0.01,0,Wunderground v.1.15,2013-12-04 22:16:00,
2013-12-04 16:17:00,39.5,38.7,29.50,SSE,165,1.0,5.0,97,0.00,,,0.01,0,Wunderground v.1.15,2013-12-04 22:17:00,
2013-12-04 16:19:00,39.6,38.8,29.50,SSE,165,1.0,5.0,97,0.00,,,0.01,0,Wunderground v.1.15,2013-12-04 22:19:00,
2013-12-04 16:22:00,39.6,38.8,29.50,SSE,165,1.0,1.0,97,0.00,,,0.01,0,Wunderground v.1.15,2013-12-04 22:22:00,
2013-12-04 16:23:00,39.6,38.8,29.50,SSE,165,1.0,1.0,97,0.00,,,0.01,0,Wunderground v.1.15,2013-12-04 22:23:00,
2013-12-04 16:24:00,39.6,38.8,29.50,SSE,165,1.0,1.0,97,0.00,,,0.01,0,Wunderground v.1.15,2013-12-04 22:24:00,
2013-12-04 16:28:00,39.6,38.8,29.50,SSE,165,0.0,1.0,97,0.00,,,0.01,0,Wunderground v.1.15,2013-12-04 22:28:00,
2013-12-04 16:29:00,39.6,38.8,29.50,SSE,165,0.0,1.0,97,0.00,,,0.01,0,Wunderground v.1.15,2013-12-04 22:29:00,
2013-12-04 16:30:00,39.6,38.8,29.50,SSE,165,0.0,0.0,97,0.00,,,0.01,0,Wunderground v.1.15,2013-12-04 22:30:00,
2013-12-04 16:31:00,39.6,38.8,29.50,SSE,165,0.0,1.0,97,0.00,,,0.01,0,Wunderground v.1.15,2013-12-04 22:31:00,
2013-12-04 16:35:00,39.7,38.9,29.50,SSE,165,0.0,1.0,97,0.31,,,0.03,0,Wunderground v.1.15,2013-12-04 22:35:00,
2013-12-04 16:37:00,39.7,38.9,29.50,SSE,165,0.0,1.0,97,0.20,,,0.03,0,Wunderground v.1.15,2013-12-04 22:37:00,
2013-12-04 16:38:00,39.7,38.9,29.50,SSE,165,0.0,1.0,97,0.14,,,0.03,0,Wunderground v.1.15,2013-12-04 22:38:00,
2013-12-04 16:40:00,39.7,38.9,29.50,SSE,165,0.0,0.0,97,0.12,,,0.04,0,Wunderground v.1.15,2013-12-04 22:40:00,
2013-12-04 16:42:00,39.7,38.9,29.50,SSE,165,0.0,0.0,97,0.12,,,0.04,0,Wunderground v.1.15,2013-12-04 22:42:00,
2013-12-04 16:43:00,39.7,38.9,29.50,SSE,165,0.0,0.0,97,0.12,,,0.04,0,Wunderground v.1.15,2013-12-04 22:43:00,
2013-12-04 16:47:00,39.8,39.0,29.50,SSE,165,0.0,0.0,97,0.08,,,0.04,0,Wunderground v.1.15,2013-12-04 22:47:00,
2013-12-04 16:48:00,39.8,39.0,29.50,SSE,165,0.0,1.0,97,0.07,,,0.04,0,Wunderground v.1.15,2013-12-04 22:48:00,
2013-12-04 16:49:00,39.8,39.0,29.50,SSE,165,0.0,1.0,97,0.06,,,0.04,0,Wunderground v.1.15,2013-12-04 22:49:00,
2013-12-04 16:52:00,39.9,39.1,29.50,SSE,165,0.0,1.0,97,0.05,,,0.04,0,Wunderground v.1.15,2013-12-04 22:52:00,
2013-12-04 16:53:00,40.0,39.2,29.49,SSE,165,0.0,1.0,97,0.04,,,0.04,0,Wunderground v.1.15,2013-12-04 22:53:00,
2013-12-04 16:54:00,39.9,39.1,29.49,SSE,165,0.0,1.0,97,0.04,,,0.04,0,Wunderground v.1.15,2013-12-04 22:54:00,
2013-12-04 16:57:00,40.0,39.2,29.49,SSE,165,0.0,1.0,97,0.00,,,0.04,0,Wunderground v.1.15,2013-12-04 22:57:00,
2013-12-04 16:58:00,40.0,39.2,29.49,SSE,165,0.0,1.0,97,0.00,,,0.04,0,Wunderground v.1.15,2013-12-04 22:58:00,
2013-12-04 16:59:00,40.0,39.2,29.49,SSE,165,0.0,1.0,97,0.00,,,0.04,0,Wunderground v.1.15,2013-12-04 22:59:00,
2013-12-04 17:00:00,40.0,39.2,29.50,SSE,165,0.0,0.0,97,0.00,,,0.04,0,Wunderground v.1.15,2013-12-04 23:00:00,
2013-12-04 17:02:00,40.0,39.2,29.49,SSE,165,0.0,1.0,97,0.00,,,0.04,0,Wunderground v.1.15,2013-12-04 23:02:00,
2013-12-04 17:04:00,40.0,39.2,29.49,SSE,165,1.0,2.0,97,0.00,,,0.04,0,Wunderground v.1.15,2013-12-04 23:04:00,
2013-12-04 17:05:00,40.1,39.3,29.49,SSE,165,1.0,2.0,97,0.00,,,0.04,0,Wunderground v.1.15,2013-12-04 23:05:00,
2013-12-04 17:06:00,40.1,39.3,29.49,SSE,165,1.0,2.0,97,0.00,,,0.04,0,Wunderground v.1.15,2013-12-04 23:06:00,
2013-12-04 17:07:00,40.1,39.3,29.50,SSE,165,1.0,2.0,97,0.00,,,0.04,0,Wunderground v.1.15,2013-12-04 23:07:00,
2013-12-04 17:09:00,40.1,39.3,29.49,SSE,165,0.0,2.0,97,0.00,,,0.04,0,Wunderground v.1.15,2013-12-04 23:09:00,
2013-12-04 17:11:00,40.1,39.3,29.50,SSE,165,0.0,1.0,97,0.00,,,0.04,0,Wunderground v.1.15,2013-12-04 23:11:00,
2013-12-04 17:12:00,40.2,39.4,29.50,SSE,165,0.0,1.0,97,0.00,,,0.04,0,Wunderground v.1.15,2013-12-04 23:12:00,
2013-12-04 17:13:00,40.2,39.4,29.50,SSE,165,0.0,1.0,97,0.00,,,0.04,0,Wunderground v.1.15,2013-12-04 23:13:00,
2013-12-04 17:14:00,40.2,39.4,29.50,SSE,165,0.0,4.0,97,0.00,,,0.04,0,Wunderground v.1.15,2013-12-04 23:14:00,
2013-12-04 17:16:00,40.3,39.5,29.50,SSE,165,0.0,4.0,97,0.00,,,0.04,0,Wunderground v.1.15,2013-12-04 23:16:00,
2013-12-04 17:17:00,40.4,39.6,29.50,SSE,165,0.0,4.0,97,0.00,,,0.04,0,Wunderground v.1.15,2013-12-04 23:17:00,
2013-12-04 17:18:00,40.4,39.6,29.49,SSE,165,0.0,4.0,97,0.00,,,0.04,0,Wunderground v.1.15,2013-12-04 23:18:00,
2013-12-04 17:19:00,40.5,39.7,29.50,SSE,165,0.0,4.0,97,0.00,,,0.04,0,Wunderground v.1.15,2013-12-04 23:19:00,
2013-12-04 17:20:00,40.5,39.7,29.50,SSE,165,1.0,1.0,97,0.00,,,0.04,0,Wunderground v.1.15,2013-12-04 23:20:00,
2013-12-04 17:21:00,40.6,39.8,29.50,SSE,165,1.0,1.0,97,0.00,,,0.04,0,Wunderground v.1.15,2013-12-04 23:21:00,
2013-12-04 17:22:00,40.6,39.8,29.50,SSE,165,1.0,1.0,97,0.00,,,0.04,0,Wunderground v.1.15,2013-12-04 23:22:00,
2013-12-04 17:24:00,40.6,39.8,29.50,SSE,165,1.0,1.0,97,0.00,,,0.04,0,Wunderground v.1.15,2013-12-04 23:24:00,
2013-12-04 17:25:00,40.7,39.9,29.50,SSE,165,0.0,1.0,97,0.00,,,0.04,0,Wunderground v.1.15,2013-12-04 23:25:00,
2013-12-04 17:26:00,40.7,39.9,29.50,SSE,165,0.0,1.0,97,0.00,,,0.04,0,Wunderground v.1.15,2013-12-04 23:26:00,
2013-12-04 17:29:00,40.8,40.0,29.50,SSE,165,0.0,1.0,97,0.00,,,0.04,0,Wunderground v.1.15,2013-12-04 23:29:00,
2013-12-04 17:32:00,41.0,40.2,29.50,SSE,165,0.0,1.0,97,0.00,,,0.05,0,Wunderground v.1.15,2013-12-04 23:32:00,
2013-12-04 17:34:00,41.0,40.2,29.50,SSE,165,0.0,1.0,97,0.00,,,0.05,0,Wunderground v.1.15,2013-12-04 23:34:00,
2013-12-04 17:35:00,41.1,40.3,29.50,SSE,165,0.0,4.0,97,0.00,,,0.05,0,Wunderground v.1.15,2013-12-04 23:35:00,
2013-12-04 17:36:00,41.1,40.3,29.50,SSE,165,1.0,4.0,97,0.00,,,0.05,0,Wunderground v.1.15,2013-12-04 23:36:00,
2013-12-04 17:38:00,41.3,40.5,29.50,SSE,165,1.0,4.0,97,0.00,,,0.05,0,Wunderground v.1.15,2013-12-04 23:38:00,
2013-12-04 17:39:00,41.3,40.5,29.50,SSE,165,1.0,4.0,97,0.00,,,0.05,0,Wunderground v.1.15,2013-12-04 23:39:00,
2013-12-04 17:42:00,41.4,40.6,29.50,SSE,161,1.0,5.0,97,0.00,,,0.05,0,Wunderground v.1.15,2013-12-04 23:42:00,
2013-12-04 17:45:00,41.5,40.7,29.50,South,174,2.0,5.0,97,0.00,,,0.05,0,Wunderground v.1.15,2013-12-04 23:45:00,
2013-12-04 17:46:00,41.6,40.8,29.50,SSW,198,2.0,5.0,97,0.00,,,0.05,0,Wunderground v.1.15,2013-12-04 23:46:00,
2013-12-04 17:48:00,41.7,40.9,29.51,SSW,199,2.0,5.0,97,0.00,,,0.05,0,Wunderground v.1.15,2013-12-04 23:48:00,
2013-12-04 17:51:00,41.8,41.0,29.51,SW,219,2.0,3.0,97,0.00,,,0.05,0,Wunderground v.1.15,2013-12-04 23:51:00,
2013-12-04 17:52:00,41.9,41.1,29.51,SSW,195,2.0,4.0,97,0.00,,,0.05,0,Wunderground v.1.15,2013-12-04 23:52:00,
2013-12-04 17:53:00,42.0,41.2,29.51,South,182,2.0,4.0,97,0.00,,,0.05,0,Wunderground v.1.15,2013-12-04 23:53:00,
2013-12-04 17:54:00,42.1,41.3,29.51,SSW,197,3.0,6.0,97,0.00,,,0.05,0,Wunderground v.1.15,2013-12-04 23:54:00,
2013-12-04 17:55:00,42.3,41.5,29.51,SSW,195,3.0,6.0,97,0.00,,,0.05,0,Wunderground v.1.15,2013-12-04 23:55:00,
2013-12-04 17:56:00,42.4,41.6,29.51,SSW,207,3.0,7.0,97,0.00,,,0.05,0,Wunderground v.1.15,2013-12-04 23:56:00,
2013-12-04 18:00:00,42.7,41.9,29.51,SSW,193,5.0,5.0,97,0.00,,,0.05,0,Wunderground v.1.15,2013-12-05 00:00:00,
2013-12-04 18:02:00,42.8,42.0,29.51,SW,221,6.0,6.0,97,0.00,,,0.05,0,Wunderground v.1.15,2013-12-05 00:02:00,
2013-12-04 18:04:00,42.8,42.0,29.51,SW,217,6.0,8.0,97,0.00,,,0.05,0,Wunderground v.1.15,2013-12-05 00:04:00,
2013-12-04 18:06:00,42.7,41.9,29.51,SW,216,6.0,9.0,97,0.00,,,0.05,0,Wunderground v.1.15,2013-12-05 00:06:00,
2013-12-04 18:07:00,42.7,41.9,29.52,SW,215,6.0,9.0,97,0.00,,,0.05,0,Wunderground v.1.15,2013-12-05 00:07:00,
2013-12-04 18:08:00,42.6,41.8,29.52,SW,223,7.0,9.0,97,0.00,,,0.05,0,Wunderground v.1.15,2013-12-05 00:08:00,
2013-12-04 18:09:00,42.6,41.8,29.52,SSW,213,6.0,9.0,97,0.00,,,0.05,0,Wunderground v.1.15,2013-12-05 00:09:00,
2013-12-04 18:12:00,42.4,41.6,29.52,South,186,6.0,6.0,97,0.00,,,0.05,0,Wunderground v.1.15,2013-12-05 00:12:00,
2013-12-04 18:13:00,42.4,41.6,29.52,South,189,5.0,6.0,97,0.00,,,0.05,0,Wunderground v.1.15,2013-12-05 00:13:00,
2013-12-04 18:15:00,42.3,41.5,29.52,SW,228,5.0,6.0,97,0.00,,,0.05,0,Wunderground v.1.15,2013-12-05 00:15:00,
2013-12-04 18:17:00,42.2,41.4,29.52,SW,227,4.0,7.0,97,0.00,,,0.05,0,Wunderground v.1.15,2013-12-05 00:17:00,
2013-12-04 18:18:00,42.2,41.4,29.52,SSW,196,4.0,7.0,97,0.00,,,0.05,0,Wunderground v.1.15,2013-12-05 00:18:00,
2013-12-04 18:21:00,42.0,41.2,29.52,SSW,198,4.0,4.0,97,0.00,,,0.05,0,Wunderground v.1.15,2013-12-05 00:21:00,
2013-12-04 18:23:00,42.0,41.2,29.52,SW,220,5.0,7.0,97,0.00,,,0.05,0,Wunderground v.1.15,2013-12-05 00:23:00,
2013-12-04 18:24:00,41.9,41.1,29.52,SSW,212,5.0,7.0,97,0.00,,,0.05,0,Wunderground v.1.15,2013-12-05 00:24:00,
2013-12-04 18:25:00,41.9,41.1,29.52,SSW,210,5.0,7.0,97,0.00,,,0.05,0,Wunderground v.1.15,2013-12-05 00:25:00,
2013-12-04 18:27:00,41.9,41.1,29.52,SSW,211,5.0,7.0,97,0.00,,,0.05,0,Wunderground v.1.15,2013-12-05 00:27:00,
2013-12-04 18:30:00,41.7,40.9,29.52,SSW,212,5.0,5.0,97,0.00,,,0.05,0,Wunderground v.1.15,2013-12-05 00:30:00,
2013-12-04 18:32:00,41.6,40.5,29.52,WSW,244,5.0,12.0,96,0.00,,,0.05,0,Wunderground v.1.15,2013-12-05 00:32:00,
2013-12-04 18:34:00,41.5,40.4,29.53,WSW,242,6.0,12.0,96,0.00,,,0.05,0,Wunderground v.1.15,2013-12-05 00:34:00,
2013-12-04 18:36:00,41.4,40.3,29.52,SW,234,6.0,12.0,96,0.00,,,0.05,0,Wunderground v.1.15,2013-12-05 00:36:00,
2013-12-04 18:39:00,41.2,40.1,29.52,South,183,6.0,12.0,96,0.00,,,0.05,0,Wunderground v.1.15,2013-12-05 00:39:00,
2013-12-04 18:42:00,41.1,40.0,29.52,SW,217,6.0,7.0,96,0.00,,,0.05,0,Wunderground v.1.15,2013-12-05 00:42:00,
2013-12-04 18:43:00,41.0,41.0,29.53,SW,216,6.0,7.0,100,0.00,,,0.05,0,Wunderground v.1.15,2013-12-05 00:43:00,
2013-12-04 18:45:00,40.9,39.8,29.52,WSW,238,6.0,7.0,96,0.00,,,0.05,0,Wunderground v.1.15,2013-12-05 00:45:00,
2013-12-04 18:46:00,40.8,39.7,29.52,SW,236,6.0,7.0,96,0.00,,,0.05,0,Wunderground v.1.15,2013-12-05 00:46:00,
2013-12-04 18:48:00,40.7,39.6,29.52,West,261,5.0,7.0,96,0.00,,,0.05,0,Wunderground v.1.15,2013-12-05 00:48:00,
2013-12-04 18:49:00,40.6,39.5,29.52,West,265,5.0,7.0,96,0.00,,,0.05,0,Wunderground v.1.15,2013-12-05 00:49:00,
2013-12-04 18:52:00,40.4,39.4,29.52,WSW,239,4.0,5.0,96,0.00,,,0.05,0,Wunderground v.1.15,2013-12-05 00:52:00,
2013-12-04 18:54:00,40.3,39.3,29.52,SW,225,4.0,9.0,96,0.00,,,0.05,0,Wunderground v.1.15,2013-12-05 00:54:00,
2013-12-04 18:55:00,40.2,39.2,29.52,SSW,213,4.0,9.0,96,0.00,,,0.05,0,Wunderground v.1.15,2013-12-05 00:55:00,
2013-12-04 18:59:00,40.1,39.1,29.53,WSW,245,5.0,9.0,96,0.00,,,0.05,0,Wunderground v.1.15,2013-12-05 00:59:00,
2013-12-04 19:00:00,40.0,39.0,29.53,SW,215,5.0,8.0,96,0.00,,,0.05,0,Wunderground v.1.15,2013-12-05 01:00:00,
2013-12-04 19:01:00,40.0,39.0,29.52,SW,219,5.0,8.0,96,0.00,,,0.05,0,Wunderground v.1.15,2013-12-05 01:01:00,
2013-12-04 19:02:00,40.0,39.0,29.52,SSW,213,5.0,8.0,96,0.00,,,0.05,0,Wunderground v.1.15,2013-12-05 01:02:00,
2013-12-04 19:04:00,39.9,38.9,29.52,West,273,5.0,8.0,96,0.00,,,0.05,0,Wunderground v.1.15,2013-12-05 01:04:00,
2013-12-04 19:07:00,39.8,38.8,29.52,SW,236,5.0,8.0,96,0.00,,,0.05,0,Wunderground v.1.15,2013-12-05 01:07:00,
2013-12-04 19:08:00,39.8,38.8,29.52,SW,236,5.0,8.0,96,0.00,,,0.05,0,Wunderground v.1.15,2013-12-05 01:08:00,
2013-12-04 19:09:00,39.7,38.7,29.52,SW,236,5.0,8.0,96,0.00,,,0.05,0,Wunderground v.1.15,2013-12-05 01:09:00,
2013-12-04 19:10:00,39.7,38.7,29.52,SW,236,5.0,5.0,96,0.00,,,0.05,0,Wunderground v.1.15,2013-12-05 01:10:00,
2013-12-04 19:14:00,39.7,38.7,29.52,SSW,210,4.0,5.0,96,0.00,,,0.05,0,Wunderground v.1.15,2013-12-05 01:14:00,
2013-12-04 19:15:00,39.7,38.7,29.52,SSW,193,4.0,6.0,96,0.00,,,0.05,0,Wunderground v.1.15,2013-12-05 01:15:00,
2013-12-04 19:16:00,39.6,38.6,29.52,SSW,209,4.0,6.0,96,0.00,,,0.05,0,Wunderground v.1.15,2013-12-05 01:16:00,
2013-12-04 19:20:00,39.4,38.4,29.53,SSW,211,5.0,5.0,96,0.00,,,0.05,0,Wunderground v.1.15,2013-12-05 01:20:00,
2013-12-04 19:21:00,39.4,38.4,29.53,SW,219,5.0,5.0,96,0.00,,,0.05,0,Wunderground v.1.15,2013-12-05 01:21:00,
2013-12-04 19:22:00,39.4,38.4,29.53,SSW,207,5.0,5.0,96,0.00,,,0.05,0,Wunderground v.1.15,2013-12-05 01:22:00,
2013-12-04 19:23:00,39.3,38.3,29.53,SSW,211,5.0,5.0,96,0.00,,,0.05,0,Wunderground v.1.15,2013-12-05 01:23:00,
2013-12-04 19:24:00,39.2,38.2,29.53,SSW,211,5.0,5.0,96,0.00,,,0.05,0,Wunderground v.1.15,2013-12-05 01:24:00,
2013-12-04 19:25:00,39.2,38.2,29.53,South,190,6.0,6.0,96,0.00,,,0.05,0,Wunderground v.1.15,2013-12-05 01:25:00,
2013-12-04 19:29:00,38.9,37.9,29.53,SSW,199,6.0,10.0,96,0.00,,,0.05,0,Wunderground v.1.15,2013-12-05 01:29:00,
2013-12-04 19:30:00,38.8,37.8,29.54,SW,215,6.0,9.0,96,0.00,,,0.05,0,Wunderground v.1.15,2013-12-05 01:30:00,
2013-12-04 19:32:00,38.7,37.7,29.54,SW,221,7.0,14.0,96,0.00,,,0.05,0,Wunderground v.1.15,2013-12-05 01:32:00,
2013-12-04 19:33:00,38.5,37.5,29.54,SW,227,7.0,14.0,96,0.00,,,0.05,0,Wunderground v.1.15,2013-12-05 01:33:00,
2013-12-04 19:34:00,38.4,37.1,29.54,SSW,203,8.0,14.0,95,0.00,,,0.05,0,Wunderground v.1.15,2013-12-05 01:34:00,
2013-12-04 19:35:00,38.4,37.4,29.54,SW,223,8.0,14.0,96,0.00,,,0.05,0,Wunderground v.1.15,2013-12-05 01:35:00,
2013-12-04 19:36:00,38.3,37.3,29.54,SW,223,8.0,14.0,96,0.00,,,0.05,0,Wunderground v.1.15,2013-12-05 01:36:00,
2013-12-04 19:37:00,38.3,37.3,29.55,SSW,209,8.0,14.0,96,0.00,,,0.05,0,Wunderground v.1.15,2013-12-05 01:37:00,
2013-12-04 19:39:00,38.1,37.1,29.55,SSW,200,8.0,14.0,96,0.00,,,0.05,0,Wunderground v.1.15,2013-12-05 01:39:00,
2013-12-04 19:42:00,37.9,36.6,29.55,SSW,211,8.0,10.0,95,0.00,,,0.05,0,Wunderground v.1.15,2013-12-05 01:42:00,
2013-12-04 19:43:00,37.8,36.5,29.55,SSW,201,8.0,10.0,95,0.00,,,0.05,0,Wunderground v.1.15,2013-12-05 01:43:00,
2013-12-04 19:45:00,37.6,36.3,29.55,SW,224,8.0,10.0,95,0.00,,,0.05,0,Wunderground v.1.15,2013-12-05 01:45:00,
2013-12-04 19:46:00,37.6,36.3,29.55,SW,215,8.0,10.0,95,0.00,,,0.05,0,Wunderground v.1.15,2013-12-05 01:46:00,
2013-12-04 19:48:00,37.4,36.1,29.55,SSW,192,8.0,11.0,95,0.00,,,0.05,0,Wunderground v.1.15,2013-12-05 01:48:00,
2013-12-04 19:50:00,37.3,36.0,29.56,SSW,205,7.0,7.0,95,0.00,,,0.05,0,Wunderground v.1.15,2013-12-05 01:50:00,
2013-12-04 19:52:00,37.3,36.0,29.56,SSW,211,7.0,8.0,95,0.00,,,0.05,0,Wunderground v.1.15,2013-12-05 01:52:00,
2013-12-04 19:53:00,37.2,35.9,29.56,SW,228,7.0,8.0,95,0.00,,,0.05,0,Wunderground v.1.15,2013-12-05 01:53:00,
2013-12-04 19:56:00,37.0,35.7,29.57,SSW,207,7.0,13.0,95,0.00,,,0.05,0,Wunderground v.1.15,2013-12-05 01:56:00,
2013-12-04 19:58:00,36.9,35.6,29.57,SW,219,7.0,13.0,95,0.00,,,0.05,0,Wunderground v.1.15,2013-12-05 01:58:00,
2013-12-04 19:59:00,36.8,35.5,29.57,SW,234,8.0,13.0,95,0.00,,,0.05,0,Wunderground v.1.15,2013-12-05 01:59:00,
2013-12-04 20:00:00,36.7,35.4,29.57,SW,225,8.0,8.0,95,0.00,,,0.05,0,Wunderground v.1.15,2013-12-05 02:00:00,
2013-12-04 20:02:00,36.6,35.3,29.57,South,182,8.0,8.0,95,0.00,,,0.05,0,Wunderground v.1.15,2013-12-05 02:02:00,
2013-12-04 20:03:00,36.5,35.2,29.57,SSW,213,8.0,9.0,95,0.00,,,0.05,0,Wunderground v.1.15,2013-12-05 02:03:00,
2013-12-04 20:04:00,36.5,36.5,29.58,WSW,239,8.0,12.0,100,0.00,,,0.05,0,Wunderground v.1.15,2013-12-05 02:04:00,
2013-12-04 20:05:00,36.4,34.8,29.58,SW,215,9.0,12.0,94,0.00,,,0.05,0,Wunderground v.1.15,2013-12-05 02:05:00,
2013-12-04 20:08:00,36.2,34.6,29.58,SW,215,9.0,12.0,94,0.00,,,0.05,0,Wunderground v.1.15,2013-12-05 02:08:00,
2013-12-04 20:11:00,36.1,34.5,29.58,SW,224,9.0,10.0,94,0.00,,,0.05,0,Wunderground v.1.15,2013-12-05 02:11:00,
2013-12-04 20:12:00,36.1,34.5,29.58,SSW,194,9.0,11.0,94,0.00,,,0.05,0,Wunderground v.1.15,2013-12-05 02:12:00,
2013-12-04 20:13:00,36.0,34.4,29.58,SW,225,9.0,12.0,94,0.00,,,0.05,0,Wunderground v.1.15,2013-12-05 02:13:00,
2013-12-04 20:14:00,36.0,34.4,29.58,SW,215,9.0,12.0,94,0.00,,,0.05,0,Wunderground v.1.15,2013-12-05 02:14:00,
2013-12-04 20:15:00,36.0,34.4,29.58,SW,214,9.0,12.0,94,0.00,,,0.05,0,Wunderground v.1.15,2013-12-05 02:15:00,
2013-12-04 20:19:00,35.9,34.3,29.58,SSW,210,9.0,12.0,94,0.00,,,0.05,0,Wunderground v.1.15,2013-12-05 02:19:00,
2013-12-04 20:21:00,35.9,34.3,29.58,SW,233,9.0,11.0,94,0.00,,,0.05,0,Wunderground v.1.15,2013-12-05 02:21:00,
2013-12-04 20:24:00,35.7,33.9,29.59,WSW,239,9.0,11.0,93,0.00,,,0.05,0,Wunderground v.1.15,2013-12-05 02:24:00,
2013-12-04 20:26:00,35.7,33.9,29.58,SW,222,9.0,11.0,93,0.00,,,0.05,0,Wunderground v.1.15,2013-12-05 02:26:00,
2013-12-04 20:27:00,35.7,33.9,29.58,SW,222,9.0,11.0,93,0.00,,,0.05,0,Wunderground v.1.15,2013-12-05 02:27:00,
2013-12-04 20:28:00,35.7,33.9,29.58,SW,219,9.0,11.0,93,0.00,,,0.05,0,Wunderground v.1.15,2013-12-05 02:28:00,
2013-12-04 20:29:00,35.6,33.8,29.58,SW,235,8.0,11.0,93,0.00,,,0.05,0,Wunderground v.1.15,2013-12-05 02:29:00,
2013-12-04 20:31:00,35.6,33.8,29.58,SW,214,8.0,8.0,93,0.00,,,0.05,0,Wunderground v.1.15,2013-12-05 02:31:00,
2013-12-04 20:33:00,35.5,33.7,29.58,SW,217,7.0,9.0,93,0.00,,,0.05,0,Wunderground v.1.15,2013-12-05 02:33:00,
2013-12-04 20:34:00,35.4,33.6,29.58,WSW,247,7.0,13.0,93,0.00,,,0.05,0,Wunderground v.1.15,2013-12-05 02:34:00,
2013-12-04 20:35:00,35.3,33.2,29.58,SW,225,7.0,13.0,92,0.00,,,0.05,0,Wunderground v.1.15,2013-12-05 02:35:00,
2013-12-04 20:37:00,35.3,33.2,29.59,SSW,209,9.0,15.0,92,0.00,,,0.05,0,Wunderground v.1.15,2013-12-05 02:37:00,
2013-12-04 20:40:00,35.1,33.0,29.59,WSW,238,10.0,11.0,92,0.00,,,0.05,0,Wunderground v.1.15,2013-12-05 02:40:00,
2013-12-04 20:41:00,35.1,33.0,29.59,South,182,10.0,12.0,92,0.00,,,0.05,0,Wunderground v.1.15,2013-12-05 02:41:00,
2013-12-04 20:43:00,35.0,32.9,29.59,SSW,209,11.0,12.0,92,0.00,,,0.05,0,Wunderground v.1.15,2013-12-05 02:43:00,
2013-12-04 20:44:00,35.0,32.6,29.59,SW,221,11.0,12.0,91,0.00,,,0.05,0,Wunderground v.1.15,2013-12-05 02:44:00,
2013-12-04 20:47:00,35.0,32.6,29.59,SW,220,10.0,12.0,91,0.00,,,0.05,0,Wunderground v.1.15,2013-12-05 02:47:00,
2013-12-04 20:48:00,34.9,32.5,29.60,SW,231,10.0,12.0,91,0.00,,,0.05,0,Wunderground v.1.15,2013-12-05 02:48:00,
2013-12-04 20:49:00,34.9,32.5,29.60,South,191,10.0,12.0,91,0.00,,,0.05,0,Wunderground v.1.15,2013-12-05 02:49:00,
2013-12-04 20:50:00,34.9,32.5,29.60,WSW,240,9.0,14.0,91,0.00,,,0.05,0,Wunderground v.1.15,2013-12-05 02:50:00,
2013-12-04 20:51:00,34.9,32.5,29.60,SW,217,10.0,14.0,91,0.00,,,0.05,0,Wunderground v.1.15,2013-12-05 02:51:00,
2013-12-04 20:54:00,34.8,32.4,29.60,South,179,9.0,14.0,91,0.00,,,0.05,0,Wunderground v.1.15,2013-12-05 02:54:00,
2013-12-04 20:56:00,34.8,32.4,29.61,SW,218,8.0,14.0,91,0.00,,,0.05,0,Wunderground v.1.15,2013-12-05 02:56:00,
2013-12-04 20:57:00,34.8,32.2,29.61,SW,227,8.0,14.0,90,0.00,,,0.05,0,Wunderground v.1.15,2013-12-05 02:57:00,
2013-12-04 20:58:00,34.7,32.1,29.61,SW,214,8.0,14.0,90,0.00,,,0.05,0,Wunderground v.1.15,2013-12-05 02:58:00,
2013-12-04 21:01:00,34.7,32.1,29.61,WSW,256,8.0,10.0,90,0.00,,,0.05,0,Wunderground v.1.15,2013-12-05 03:01:00,
2013-12-04 21:02:00,34.6,32.0,29.61,WSW,242,8.0,16.0,90,0.00,,,0.05,0,Wunderground v.1.15,2013-12-05 03:02:00,
2013-12-04 21:05:00,34.5,31.9,29.62,SW,231,10.0,16.0,90,0.00,,,0.05,0,Wunderground v.1.15,2013-12-05 03:05:00,
2013-12-04 21:06:00,34.5,31.9,29.62,SW,217,9.0,16.0,90,0.00,,,0.05,0,Wunderground v.1.15,2013-12-05 03:06:00,
2013-12-04 21:07:00,34.5,31.9,29.62,SSW,197,10.0,16.0,90,0.00,,,0.05,0,Wunderground v.1.15,2013-12-05 03:07:00,
2013-12-04 21:09:00,34.4,31.8,29.62,SW,218,10.0,16.0,90,0.00,,,0.05,0,Wunderground v.1.15,2013-12-05 03:09:00,
2013-12-04 21:10:00,34.4,31.5,29.63,SW,215,10.0,10.0,89,0.00,,,0.05,0,Wunderground v.1.15,2013-12-05 03:10:00,
2013-12-04 21:11:00,34.4,31.8,29.63,SSW,211,10.0,10.0,90,0.00,,,0.05,0,Wunderground v.1.15,2013-12-05 03:11:00,
2013-12-04 21:12:00,34.3,31.7,29.63,SSW,211,10.0,10.0,90,0.00,,,0.05,0,Wunderground v.1.15,2013-12-05 03:12:00,
2013-12-04 21:14:00,34.3,31.7,29.63,SSW,211,9.0,10.0,90,0.00,,,0.05,0,Wunderground v.1.15,2013-12-05 03:14:00,
2013-12-04 21:16:00,34.2,31.3,29.63,SW,224,9.0,12.0,89,0.00,,,0.05,0,Wunderground v.1.15,2013-12-05 03:16:00,
2013-12-04 21:19:00,34.1,31.2,29.63,West,262,9.0,13.0,89,0.00,,,0.05,0,Wunderground v.1.15,2013-12-05 03:19:00,
2013-12-04 21:20:00,34.0,31.1,29.62,SW,224,9.0,9.0,89,0.00,,,0.05,0,Wunderground v.1.15,2013-12-05 03:20:00,
2013-12-04 21:21:00,34.0,31.1,29.63,SW,217,8.0,13.0,89,0.00,,,0.05,0,Wunderground v.1.15,2013-12-05 03:21:00,
2013-12-04 21:22:00,33.9,31.0,29.63,SW,214,8.0,13.0,89,0.00,,,0.05,0,Wunderground v.1.15,2013-12-05 03:22:00,
2013-12-04 21:26:00,33.8,30.9,29.62,SW,217,9.0,15.0,89,0.00,,,0.05,0,Wunderground v.1.15,2013-12-05 03:26:00,
2013-12-04 21:28:00,33.7,30.8,29.62,SW,217,9.0,15.0,89,0.00,,,0.05,0,Wunderground v.1.15,2013-12-05 03:28:00,
2013-12-04 21:29:00,33.7,30.5,29.62,SW,214,9.0,15.0,88,0.00,,,0.05,0,Wunderground v.1.15,2013-12-05 03:29:00,
2013-12-04 21:30:00,33.6,30.4,29.62,WSW,254,9.0,11.0,88,0.00,,,0.05,0,Wunderground v.1.15,2013-12-05 03:30:00,
2013-12-04 21:32:00,33.5,30.3,29.62,SW,228,9.0,11.0,88,0.00,,,0.05,0,Wunderground v.1.15,2013-12-05 03:32:00,
2013-12-04 21:33:00,33.5,30.3,29.62,SSW,210,9.0,11.0,88,0.00,,,0.05,0,Wunderground v.1.15,2013-12-05 03:33:00,
2013-12-04 21:35:00,33.5,30.3,29.62,SW,227,8.0,11.0,88,0.00,,,0.05,0,Wunderground v.1.15,2013-12-05 03:35:00,
2013-12-04 21:39:00,33.3,30.1,29.63,SW,217,7.0,11.0,88,0.00,,,0.05,0,Wunderground v.1.15,2013-12-05 03:39:00,
2013-12-04 21:40:00,33.3,30.1,29.62,South,178,7.0,7.0,88,0.00,,,0.05,0,Wunderground v.1.15,2013-12-05 03:40:00,
2013-12-04 21:41:00,33.3,30.1,29.62,SW,214,7.0,8.0,88,0.00,,,0.05,0,Wunderground v.1.15,2013-12-05 03:41:00,
2013-12-04 21:42:00,33.3,30.1,29.63,SW,220,7.0,8.0,88,0.00,,,0.05,0,Wunderground v.1.15,2013-12-05 03:42:00,
2013-12-04 21:44:00,33.3,30.1,29.63,SSW,195,6.0,8.0,88,0.00,,,0.05,0,Wunderground v.1.15,2013-12-05 03:44:00,
2013-12-04 21:45:00,33.3,30.1,29.63,SSW,193,6.0,8.0,88,0.00,,,0.05,0,Wunderground v.1.15,2013-12-05 03:45:00,
2013-12-04 21:46:00,33.2,30.0,29.63,South,180,6.0,8.0,88,0.00,,,0.05,0,Wunderground v.1.15,2013-12-05 03:46:00,
2013-12-04 21:47:00,33.2,30.0,29.63,SSW,199,6.0,8.0,88,0.00,,,0.05,0,Wunderground v.1.15,2013-12-05 03:47:00,
2013-12-04 21:50:00,33.1,29.7,29.64,South,179,5.0,5.0,87,0.00,,,0.05,0,Wunderground v.1.15,2013-12-05 03:50:00,
2013-12-04 21:52:00,33.1,29.7,29.64,SSW,209,5.0,5.0,87,0.00,,,0.05,0,Wunderground v.1.15,2013-12-05 03:52:00,
2013-12-04 21:53:00,33.0,29.6,29.64,SSW,212,5.0,5.0,87,0.00,,,0.05,0,Wunderground v.1.15,2013-12-05 03:53:00,
2013-12-04 21:55:00,33.0,29.6,29.65,SSW,197,5.0,7.0,87,0.00,,,0.05,0,Wunderground v.1.15,2013-12-05 03:55:00,
2013-12-04 21:56:00,33.0,29.6,29.65,SSW,192,5.0,7.0,87,0.00,,,0.05,0,Wunderground v.1.15,2013-12-05 03:56:00,
2013-12-04 22:00:00,32.9,29.5,29.65,SSW,207,6.0,7.0,87,0.00,,,0.05,0,Wunderground v.1.15,2013-12-05 04:00:00,
2013-12-04 22:01:00,32.8,29.4,29.65,South,170,7.0,7.0,87,0.00,,,0.05,0,Wunderground v.1.15,2013-12-05 04:01:00,
2013-12-04 22:04:00,32.8,29.4,29.65,SW,235,7.0,12.0,87,0.00,,,0.05,0,Wunderground v.1.15,2013-12-05 04:04:00,
2013-12-04 22:06:00,32.7,29.0,29.65,SSW,213,8.0,14.0,86,0.00,,,0.05,0,Wunderground v.1.15,2013-12-05 04:06:00,
2013-12-04 22:08:00,32.6,28.9,29.66,SSW,209,10.0,14.0,86,0.00,,,0.05,0,Wunderground v.1.15,2013-12-05 04:08:00,
2013-12-04 22:11:00,32.5,28.5,29.66,SW,227,10.0,11.0,85,0.00,,,0.05,0,Wunderground v.1.15,2013-12-05 04:11:00,
2013-12-04 22:12:00,32.4,28.4,29.66,SSW,209,11.0,11.0,85,0.00,,,0.05,0,Wunderground v.1.15,2013-12-05 04:12:00,
2013-12-04 22:13:00,32.4,28.4,29.66,SSW,210,11.0,11.0,85,0.00,,,0.05,0,Wunderground v.1.15,2013-12-05 04:13:00,
2013-12-04 22:14:00,32.4,28.4,29.66,SW,236,11.0,11.0,85,0.00,,,0.05,0,Wunderground v.1.15,2013-12-05 04:14:00,
2013-12-04 22:15:00,32.3,28.3,29.67,SW,223,11.0,11.0,85,0.00,,,0.05,0,Wunderground v.1.15,2013-12-05 04:15:00,
2013-12-04 22:18:00,32.3,28.3,29.67,SSW,207,10.0,11.0,85,0.00,,,0.05,0,Wunderground v.1.15,2013-12-05 04:18:00,
2013-12-04 22:19:00,32.3,28.3,29.67,SSW,212,9.0,12.0,85,0.00,,,0.05,0,Wunderground v.1.15,2013-12-05 04:19:00,
2013-12-04 22:20:00,32.3,28.3,29.67,SSW,203,9.0,9.0,85,0.00,,,0.05,0,Wunderground v.1.15,2013-12-05 04:20:00,
2013-12-04 22:21:00,32.2,27.9,29.67,SSW,206,9.0,9.0,84,0.00,,,0.05,0,Wunderground v.1.15,2013-12-05 04:21:00,
2013-12-04 22:24:00,32.2,27.9,29.67,West,260,8.0,16.0,84,0.00,,,0.05,0,Wunderground v.1.15,2013-12-05 04:24:00,
2013-12-04 22:25:00,32.1,27.8,29.67,SW,230,9.0,16.0,84,0.00,,,0.05,0,Wunderground v.1.15,2013-12-05 04:25:00,
2013-12-04 22:26:00,32.1,27.8,29.67,SW,216,9.0,16.0,84,0.00,,,0.05,0,Wunderground v.1.15,2013-12-05 04:26:00,
2013-12-04 22:28:00,32.1,27.8,29.67,SSW,211,10.0,16.0,84,0.00,,,0.05,0,Wunderground v.1.15,2013-12-05 04:28:00,
2013-12-04 22:30:00,32.0,27.7,29.68,WSW,239,10.0,13.0,84,0.00,,,0.05,0,Wunderground v.1.15,2013-12-05 04:30:00,
2013-12-04 22:31:00,32.0,27.7,29.68,SW,223,10.0,13.0,84,0.00,,,0.05,0,Wunderground v.1.15,2013-12-05 04:31:00,
2013-12-04 22:32:00,32.0,27.7,29.68,SW,226,10.0,13.0,84,0.00,,,0.05,0,Wunderground v.1.15,2013-12-05 04:32:00,
2013-12-04 22:33:00,32.0,27.7,29.67,WSW,243,10.0,13.0,84,0.00,,,0.05,0,Wunderground v.1.15,2013-12-05 04:33:00,
2013-12-04 22:36:00,32.0,27.7,29.67,SW,215,9.0,13.0,84,0.00,,,0.05,0,Wunderground v.1.15,2013-12-05 04:36:00,
2013-12-04 22:40:00,31.9,27.6,29.67,SW,219,9.0,9.0,84,0.00,,,0.05,0,Wunderground v.1.15,2013-12-05 04:40:00,
2013-12-04 22:41:00,31.9,27.6,29.67,SSW,208,9.0,9.0,84,0.00,,,0.05,0,Wunderground v.1.15,2013-12-05 04:41:00,
2013-12-04 22:43:00,31.9,27.6,29.68,SW,217,9.0,9.0,84,0.00,,,0.05,0,Wunderground v.1.15,2013-12-05 04:43:00,
2013-12-04 22:44:00,31.9,27.6,29.68,SW,220,9.0,9.0,84,0.00,,,0.05,0,Wunderground v.1.15,2013-12-05 04:44:00,
2013-12-04 22:49:00,31.8,27.5,29.67,SSW,213,8.0,12.0,84,0.00,,,0.05,0,Wunderground v.1.15,2013-12-05 04:49:00,
2013-12-04 22:50:00,31.8,27.5,29.67,SW,221,8.0,14.0,84,0.00,,,0.05,0,Wunderground v.1.15,2013-12-05 04:50:00,
2013-12-04 22:51:00,31.8,27.5,29.68,WSW,245,9.0,14.0,84,0.00,,,0.05,0,Wunderground v.1.15,2013-12-05 04:51:00,
2013-12-04 22:52:00,31.7,27.4,29.68,SW,226,9.0,17.0,84,0.00,,,0.05,0,Wunderground v.1.15,2013-12-05 04:52:00,
2013-12-04 22:53:00,31.7,27.4,29.68,SSW,209,9.0,17.0,84,0.00,,,0.05,0,Wunderground v.1.15,2013-12-05 04:53:00,
2013-12-04 22:55:00,31.7,27.4,29.68,SSW,199,9.0,17.0,84,0.00,,,0.05,0,Wunderground v.1.15,2013-12-05 04:55:00,
2013-12-04 22:56:00,31.7,27.4,29.68,SW,234,10.0,17.0,84,0.00,,,0.05,0,Wunderground v.1.15,2013-12-05 04:56:00,
2013-12-04 22:59:00,31.7,27.4,29.68,SSW,201,11.0,17.0,84,0.00,,,0.05,0,Wunderground v.1.15,2013-12-05 04:59:00,
2013-12-04 23:00:00,31.6,27.3,29.68,SW,226,10.0,12.0,84,0.00,,,0.05,0,Wunderground v.1.15,2013-12-05 05:00:00,
2013-12-04 23:01:00,31.6,27.3,29.68,WSW,247,10.0,12.0,84,0.00,,,0.05,0,Wunderground v.1.15,2013-12-05 05:01:00,
2013-12-04 23:04:00,31.6,27.3,29.68,SW,219,10.0,12.0,84,0.00,,,0.05,0,Wunderground v.1.15,2013-12-05 05:04:00,
2013-12-04 23:05:00,31.6,27.3,29.68,SSW,196,9.0,12.0,84,0.00,,,0.05,0,Wunderground v.1.15,2013-12-05 05:05:00,
2013-12-04 23:06:00,31.6,27.3,29.68,SSW,207,9.0,12.0,84,0.00,,,0.05,0,Wunderground v.1.15,2013-12-05 05:06:00,
2013-12-04 23:08:00,31.6,27.3,29.68,SW,221,8.0,12.0,84,0.00,,,0.05,0,Wunderground v.1.15,2013-12-05 05:08:00,
2013-12-04 23:09:00,31.6,27.3,29.68,SSW,205,9.0,12.0,84,0.00,,,0.05,0,Wunderground v.1.15,2013-12-05 05:09:00,
2013-12-04 23:10:00,31.6,27.3,29.68,SW,218,9.0,9.0,84,0.00,,,0.05,0,Wunderground v.1.15,2013-12-05 05:10:00,
2013-12-04 23:14:00,31.5,27.2,29.68,SW,214,8.0,13.0,84,0.00,,,0.05,0,Wunderground v.1.15,2013-12-05 05:14:00,
2013-12-04 23:15:00,31.5,27.2,29.68,SSW,197,8.0,13.0,84,0.00,,,0.05,0,Wunderground v.1.15,2013-12-05 05:15:00,
2013-12-04 23:16:00,31.5,27.2,29.68,SW,218,9.0,13.0,84,0.00,,,0.05,0,Wunderground v.1.15,2013-12-05 05:16:00,
2013-12-04 23:22:00,31.4,26.8,29.69,WSW,243,9.0,12.0,83,0.00,,,0.05,0,Wunderground v.1.15,2013-12-05 05:22:00,
2013-12-04 23:23:00,31.4,26.8,29.69,SW,228,9.0,12.0,83,0.00,,,0.05,0,Wunderground v.1.15,2013-12-05 05:23:00,
2013-12-04 23:24:00,31.4,26.8,29.69,SW,233,10.0,12.0,83,0.00,,,0.05,0,Wunderground v.1.15,2013-12-05 05:24:00,
2013-12-04 23:25:00,31.4,26.8,29.69,WSW,240,10.0,12.0,83,0.00,,,0.05,0,Wunderground v.1.15,2013-12-05 05:25:00,
2013-12-04 23:29:00,31.4,26.8,29.69,SW,217,9.0,12.0,83,0.00,,,0.05,0,Wunderground v.1.15,2013-12-05 05:29:00,
2013-12-04 23:30:00,31.4,26.8,29.70,SW,221,8.0,9.0,83,0.00,,,0.05,0,Wunderground v.1.15,2013-12-05 05:30:00,
2013-12-04 23:32:00,31.4,27.1,29.70,SW,214,8.0,9.0,84,0.00,,,0.05,0,Wunderground v.1.15,2013-12-05 05:32:00,
2013-12-04 23:34:00,31.4,27.1,29.70,WSW,237,8.0,13.0,84,0.00,,,0.05,0,Wunderground v.1.15,2013-12-05 05:34:00,
2013-12-04 23:35:00,31.3,27.0,29.71,SSW,210,8.0,13.0,84,0.00,,,0.05,0,Wunderground v.1.15,2013-12-05 05:35:00,
2013-12-04 23:36:00,31.3,27.0,29.71,SW,219,7.0,13.0,84,0.00,,,0.05,0,Wunderground v.1.15,2013-12-05 05:36:00,
2013-12-04 23:37:00,31.3,27.0,29.71,SW,224,7.0,17.0,84,0.00,,,0.05,0,Wunderground v.1.15,2013-12-05 05:37:00,
2013-12-04 23:39:00,31.2,26.6,29.71,SW,215,8.0,17.0,83,0.00,,,0.05,0,Wunderground v.1.15,2013-12-05 05:39:00,
2013-12-04 23:42:00,31.0,26.1,29.71,WSW,247,9.0,15.0,82,0.00,,,0.05,0,Wunderground v.1.15,2013-12-05 05:42:00,
2013-12-04 23:45:00,30.8,26.0,29.71,SW,222,8.0,15.0,82,0.00,,,0.05,0,Wunderground v.1.15,2013-12-05 05:45:00,
2013-12-04 23:46:00,30.8,26.0,29.71,SW,227,9.0,15.0,82,0.00,,,0.05,0,Wunderground v.1.15,2013-12-05 05:46:00,
2013-12-04 23:49:00,30.7,25.6,29.71,SW,221,8.0,15.0,81,0.00,,,0.05,0,Wunderground v.1.15,2013-12-05 05:49:00,
2013-12-04 23:51:00,30.6,25.5,29.71,SW,235,8.0,11.0,81,0.00,,,0.05,0,Wunderground v.1.15,2013-12-05 05:51:00,
2013-12-04 23:53:00,30.5,25.4,29.72,SW,221,8.0,11.0,81,0.00,,,0.05,0,Wunderground v.1.15,2013-12-05 05:53:00,
2013-12-04 23:54:00,30.5,25.4,29.72,SW,224,8.0,11.0,81,0.00,,,0.05,0,Wunderground v.1.15,2013-12-05 05:54:00,
2013-12-04 23:56:00,30.5,25.4,29.72,SW,216,8.0,11.0,81,0.00,,,0.05,0,Wunderground v.1.15,2013-12-05 05:56:00,
2013-12-04 23:57:00,30.5,25.4,29.72,NW,311,8.0,11.0,81,0.00,,,0.05,0,Wunderground v.1.15,2013-12-05 05:57:00,
2013-12-04 23:59:00,30.4,25.3,29.72,SW,229,8.0,11.0,81,0.00,,,0.05,0,Wunderground v.1.15,2013-12-05 05:59:00,